GFSNGP_prec_pwat_099.txt.gz
Precipitable_Water
0.30 0.31 0.33 0.32 0.35 0.36 0.36 0.40 0.34 0.35 0.33 0.38 0.40 0.41 0.39 0.38 0.40 0.36 0.36 0.43 0.50 0.57 0.65 0.73 0.75 0.79 0.84 0.90 0.98 1.05 1.14 1.16 1.17 1.17 1.18 1.10 1.02 1.00 0.98 0.99 1.06 1.12 1.13 1.21
0.33 0.38 0.38 0.34 0.42 0.41 0.39 0.40 0.38 0.38 0.33 0.43 0.42 0.40 0.37 0.36 0.34 0.33 0.37 0.42 0.46 0.52 0.58 0.67 0.74 0.77 0.82 0.86 0.94 1.01 1.03 1.12 1.20 1.19 1.18 1.11 1.06 1.04 1.03 0.99 1.05 1.11 1.10 1.11
0.27 0.36 0.36 0.31 0.36 0.36 0.35 0.37 0.36 0.29 0.34 0.39 0.34 0.33 0.32 0.34 0.36 0.36 0.38 0.41 0.45 0.50 0.55 0.60 0.70 0.76 0.77 0.83 0.89 0.93 0.97 1.03 1.14 1.16 1.12 1.13 1.09 1.02 0.96 0.94 0.97 1.01 1.01 1.03
0.23 0.27 0.20 0.34 0.43 0.40 0.34 0.34 0.35 0.34 0.34 0.35 0.35 0.36 0.38 0.39 0.39 0.39 0.40 0.43 0.46 0.49 0.53 0.58 0.62 0.71 0.78 0.80 0.85 0.87 0.92 0.98 1.03 1.08 1.08 1.09 1.05 0.97 0.93 0.94 0.94 0.94 0.93 0.94
0.24 0.26 0.29 0.30 0.31 0.29 0.29 0.27 0.34 0.32 0.33 0.37 0.39 0.39 0.35 0.41 0.43 0.41 0.42 0.45 0.48 0.52 0.52 0.55 0.59 0.63 0.70 0.76 0.79 0.82 0.85 0.92 0.96 0.99 1.04 1.03 0.97 0.91 0.87 0.88 0.89 0.89 0.91 0.92
0.26 0.22 0.19 0.25 0.30 0.34 0.35 0.20 0.34 0.35 0.33 0.33 0.37 0.28 0.32 0.41 0.44 0.44 0.46 0.48 0.48 0.51 0.52 0.53 0.56 0.59 0.61 0.69 0.74 0.74 0.79 0.83 0.91 0.93 0.93 0.96 0.92 0.87 0.85 0.84 0.84 0.85 0.84 0.86
0.27 0.22 0.25 0.31 0.34 0.37 0.19 0.23 0.37 0.38 0.36 0.34 0.32 0.35 0.40 0.43 0.44 0.46 0.48 0.48 0.50 0.51 0.50 0.52 0.56 0.58 0.59 0.62 0.69 0.73 0.77 0.80 0.85 0.87 0.87 0.90 0.85 0.86 0.82 0.79 0.80 0.80 0.80 0.81
0.27 0.22 0.17 0.32 0.29 0.22 0.28 0.35 0.36 0.36 0.38 0.37 0.38 0.40 0.41 0.42 0.43 0.45 0.47 0.48 0.50 0.50 0.51 0.54 0.56 0.59 0.58 0.59 0.64 0.71 0.72 0.74 0.77 0.78 0.80 0.82 0.84 0.88 0.81 0.80 0.79 0.80 0.80 0.80
0.27 0.25 0.33 0.34 0.31 0.35 0.36 0.34 0.36 0.38 0.40 0.41 0.40 0.41 0.42 0.42 0.43 0.45 0.46 0.47 0.49 0.49 0.50 0.52 0.55 0.58 0.58 0.60 0.63 0.65 0.67 0.67 0.70 0.72 0.72 0.75 0.76 0.77 0.76 0.74 0.73 0.74 0.73 0.75
0.26 0.28 0.30 0.32 0.35 0.37 0.37 0.37 0.39 0.41 0.41 0.43 0.41 0.42 0.42 0.43 0.43 0.44 0.46 0.46 0.48 0.49 0.48 0.49 0.51 0.54 0.58 0.60 0.62 0.62 0.61 0.62 0.63 0.64 0.66 0.68 0.69 0.71 0.70 0.70 0.70 0.70 0.69 0.70
0.25 0.29 0.32 0.33 0.36 0.38 0.39 0.40 0.40 0.42 0.43 0.43 0.43 0.43 0.43 0.42 0.43 0.44 0.44 0.46 0.46 0.46 0.46 0.47 0.50 0.51 0.54 0.56 0.58 0.57 0.57 0.58 0.58 0.59 0.60 0.60 0.62 0.63 0.62 0.65 0.66 0.64 0.64 0.65
0.23 0.32 0.32 0.33 0.38 0.40 0.39 0.39 0.41 0.41 0.41 0.44 0.44 0.43 0.43 0.42 0.43 0.42 0.41 0.41 0.40 0.40 0.41 0.41 0.43 0.45 0.47 0.51 0.52 0.53 0.52 0.53 0.54 0.54 0.54 0.55 0.55 0.56 0.59 0.60 0.61 0.62 0.62 0.63
0.32 0.37 0.37 0.38 0.40 0.41 0.40 0.41 0.42 0.42 0.42 0.42 0.43 0.43 0.42 0.40 0.39 0.39 0.37 0.36 0.36 0.35 0.36 0.37 0.38 0.38 0.40 0.42 0.44 0.44 0.44 0.46 0.47 0.48 0.49 0.50 0.51 0.50 0.49 0.53 0.56 0.56 0.57 0.58
0.40 0.39 0.35 0.39 0.37 0.41 0.41 0.42 0.42 0.42 0.43 0.42 0.41 0.39 0.37 0.35 0.34 0.33 0.32 0.31 0.29 0.27 0.26 0.27 0.28 0.28 0.31 0.32 0.32 0.33 0.35 0.37 0.38 0.40 0.40 0.40 0.41 0.41 0.42 0.43 0.45 0.47 0.51 0.51
0.40 0.41 0.39 0.40 0.42 0.41 0.40 0.39 0.37 0.35 0.35 0.35 0.34 0.32 0.30 0.27 0.25 0.23 0.22 0.21 0.19 0.18 0.17 0.18 0.19 0.20 0.23 0.25 0.25 0.23 0.24 0.24 0.26 0.26 0.28 0.29 0.30 0.29 0.29 0.30 0.31 0.32 0.34 0.37
0.41 0.39 0.37 0.35 0.34 0.33 0.32 0.32 0.31 0.30 0.30 0.29 0.27 0.25 0.22 0.19 0.18 0.17 0.16 0.15 0.13 0.13 0.13 0.13 0.13 0.16 0.18 0.19 0.19 0.20 0.19 0.20 0.20 0.20 0.20 0.20 0.21 0.20 0.20 0.18 0.19 0.20 0.21 0.22
0.33 0.32 0.32 0.31 0.31 0.30 0.29 0.29 0.28 0.26 0.24 0.21 0.18 0.16 0.15 0.14 0.13 0.13 0.14 0.14 0.13 0.12 0.12 0.12 0.11 0.13 0.15 0.16 0.16 0.17 0.17 0.16 0.16 0.16 0.17 0.17 0.17 0.17 0.17 0.16 0.15 0.15 0.17 0.19
0.36 0.35 0.33 0.31 0.29 0.28 0.26 0.25 0.23 0.19 0.14 0.13 0.12 0.12 0.11 0.11 0.10 0.11 0.11 0.12 0.11 0.10 0.10 0.11 0.12 0.10 0.12 0.13 0.14 0.15 0.15 0.14 0.15 0.15 0.16 0.15 0.15 0.16 0.15 0.15 0.15 0.14 0.14 0.14
0.34 0.32 0.31 0.30 0.28 0.26 0.22 0.17 0.15 0.13 0.13 0.12 0.11 0.10 0.10 0.10 0.10 0.11 0.12 0.11 0.09 0.08 0.09 0.10 0.09 0.09 0.10 0.11 0.12 0.13 0.13 0.13 0.12 0.13 0.13 0.14 0.12 0.13 0.13 0.14 0.13 0.13 0.13 0.12
0.31 0.30 0.29 0.27 0.23 0.19 0.15 0.15 0.14 0.13 0.13 0.12 0.11 0.10 0.10 0.10 0.10 0.11 0.12 0.10 0.10 0.10 0.11 0.10 0.08 0.07 0.09 0.11 0.11 0.11 0.11 0.12 0.12 0.11 0.12 0.12 0.12 0.12 0.12 0.12 0.12 0.12 0.12 0.12
0.29 0.28 0.24 0.20 0.17 0.16 0.15 0.14 0.13 0.12 0.12 0.12 0.11 0.11 0.11 0.12 0.12 0.11 0.11 0.10 0.11 0.10 0.11 0.10 0.08 0.08 0.10 0.10 0.10 0.10 0.10 0.10 0.10 0.11 0.10 0.11 0.11 0.11 0.11 0.11 0.11 0.11 0.11 0.10
0.26 0.22 0.18 0.17 0.16 0.15 0.15 0.14 0.13 0.12 0.12 0.12 0.12 0.11 0.12 0.12 0.12 0.12 0.12 0.11 0.11 0.10 0.11 0.09 0.09 0.08 0.09 0.10 0.11 0.10 0.10 0.10 0.09 0.10 0.10 0.09 0.10 0.10 0.10 0.10 0.09 0.10 0.10 0.10
0.21 0.19 0.18 0.16 0.15 0.15 0.15 0.14 0.13 0.13 0.13 0.12 0.12 0.12 0.12 0.13 0.14 0.12 0.11 0.12 0.12 0.10 0.11 0.11 0.10 0.09 0.08 0.10 0.11 0.10 0.09 0.10 0.10 0.10 0.10 0.09 0.09 0.09 0.09 0.09 0.09 0.09 0.09 0.09
0.20 0.18 0.17 0.18 0.17 0.15 0.14 0.14 0.14 0.16 0.16 0.16 0.15 0.15 0.14 0.14 0.15 0.15 0.14 0.13 0.12 0.11 0.11 0.11 0.11 0.10 0.09 0.10 0.11 0.10 0.10 0.09 0.10 0.10 0.09 0.09 0.10 0.10 0.09 0.09 0.09 0.09 0.09 0.09
0.19 0.18 0.18 0.16 0.16 0.16 0.17 0.17 0.17 0.18 0.18 0.18 0.18 0.18 0.17 0.16 0.14 0.14 0.13 0.13 0.13 0.12 0.12 0.12 0.12 0.11 0.11 0.10 0.10 0.11 0.10 0.10 0.10 0.10 0.10 0.09 0.09 0.09 0.09 0.10 0.10 0.09 0.09 0.08
0.19 0.18 0.18 0.18 0.18 0.19 0.18 0.18 0.17 0.18 0.18 0.17 0.18 0.18 0.18 0.18 0.16 0.15 0.14 0.14 0.13 0.13 0.12 0.13 0.12 0.12 0.12 0.11 0.11 0.10 0.10 0.10 0.11 0.11 0.11 0.10 0.10 0.09 0.09 0.10 0.10 0.10 0.10 0.10
0.20 0.20 0.19 0.17 0.17 0.17 0.17 0.16 0.15 0.16 0.16 0.15 0.14 0.14 0.14 0.15 0.15 0.15 0.15 0.14 0.14 0.14 0.14 0.13 0.13 0.13 0.13 0.12 0.11 0.11 0.10 0.10 0.10 0.10 0.11 0.10 0.10 0.09 0.10 0.10 0.10 0.10 0.10 0.09

GFSNGP_prec_pwat_105.txt.gz
Precipitable_Water
0.29 0.31 0.33 0.32 0.33 0.36 0.36 0.36 0.29 0.30 0.31 0.36 0.37 0.36 0.35 0.39 0.40 0.43 0.40 0.41 0.43 0.47 0.55 0.62 0.68 0.75 0.79 0.85 0.92 0.98 1.01 0.99 1.09 1.15 1.29 1.30 1.24 1.16 1.16 1.17 1.13 1.12 1.08 1.02
0.28 0.33 0.33 0.30 0.33 0.33 0.35 0.36 0.35 0.34 0.32 0.38 0.38 0.40 0.36 0.36 0.38 0.38 0.37 0.39 0.42 0.44 0.50 0.56 0.63 0.69 0.73 0.78 0.83 0.92 0.95 1.00 1.08 1.11 1.09 1.09 1.15 1.16 1.15 1.11 1.10 1.08 1.04 1.01
0.25 0.30 0.29 0.22 0.29 0.32 0.33 0.34 0.33 0.27 0.32 0.36 0.34 0.35 0.36 0.37 0.38 0.37 0.38 0.40 0.41 0.43 0.48 0.52 0.57 0.65 0.69 0.75 0.79 0.80 0.92 0.98 1.01 0.98 0.98 0.99 1.04 1.08 1.06 1.05 1.02 1.00 0.98 0.98
0.26 0.29 0.17 0.28 0.37 0.36 0.33 0.33 0.33 0.32 0.32 0.34 0.35 0.36 0.38 0.40 0.39 0.40 0.42 0.42 0.43 0.44 0.46 0.51 0.54 0.59 0.65 0.68 0.75 0.76 0.81 0.84 0.86 0.89 0.92 0.92 0.94 0.95 0.97 1.00 1.00 0.98 0.99 0.98
0.25 0.23 0.26 0.29 0.31 0.32 0.30 0.28 0.34 0.32 0.34 0.35 0.36 0.38 0.36 0.41 0.42 0.42 0.43 0.45 0.46 0.47 0.48 0.50 0.53 0.54 0.56 0.60 0.65 0.71 0.73 0.77 0.80 0.84 0.84 0.85 0.86 0.88 0.90 0.90 0.96 0.96 0.96 0.97
0.28 0.21 0.18 0.26 0.32 0.36 0.37 0.23 0.34 0.34 0.32 0.33 0.36 0.28 0.32 0.40 0.43 0.44 0.45 0.46 0.47 0.48 0.49 0.49 0.50 0.53 0.52 0.53 0.55 0.59 0.64 0.69 0.73 0.76 0.78 0.79 0.80 0.82 0.84 0.86 0.87 0.90 0.92 0.92
0.26 0.22 0.25 0.31 0.35 0.39 0.22 0.23 0.33 0.34 0.33 0.33 0.31 0.33 0.37 0.40 0.41 0.44 0.45 0.45 0.47 0.48 0.47 0.48 0.50 0.50 0.49 0.49 0.49 0.53 0.58 0.62 0.66 0.69 0.72 0.74 0.75 0.79 0.83 0.82 0.82 0.82 0.85 0.87
0.23 0.20 0.17 0.33 0.34 0.24 0.30 0.35 0.34 0.35 0.35 0.34 0.34 0.36 0.37 0.39 0.40 0.42 0.43 0.45 0.46 0.46 0.46 0.48 0.49 0.48 0.47 0.47 0.51 0.52 0.54 0.56 0.58 0.62 0.65 0.67 0.68 0.69 0.72 0.76 0.74 0.74 0.75 0.78
0.25 0.24 0.32 0.33 0.32 0.36 0.37 0.34 0.34 0.35 0.36 0.36 0.35 0.36 0.37 0.38 0.40 0.41 0.42 0.42 0.43 0.43 0.44 0.45 0.46 0.47 0.45 0.47 0.50 0.51 0.51 0.52 0.54 0.56 0.58 0.60 0.63 0.63 0.64 0.66 0.68 0.68 0.68 0.69
0.27 0.27 0.29 0.31 0.34 0.36 0.36 0.35 0.37 0.37 0.37 0.37 0.36 0.37 0.38 0.38 0.38 0.38 0.38 0.38 0.38 0.38 0.38 0.38 0.40 0.41 0.42 0.44 0.45 0.46 0.47 0.49 0.51 0.52 0.54 0.56 0.57 0.57 0.59 0.60 0.60 0.61 0.61 0.63
0.25 0.27 0.29 0.31 0.34 0.35 0.36 0.37 0.37 0.38 0.37 0.37 0.37 0.38 0.38 0.37 0.36 0.35 0.35 0.35 0.34 0.33 0.32 0.32 0.33 0.33 0.34 0.35 0.36 0.36 0.36 0.38 0.41 0.45 0.48 0.50 0.53 0.54 0.55 0.57 0.57 0.56 0.57 0.58
0.21 0.28 0.29 0.30 0.35 0.36 0.35 0.35 0.37 0.37 0.37 0.38 0.38 0.37 0.37 0.34 0.33 0.32 0.30 0.30 0.27 0.25 0.23 0.22 0.22 0.22 0.22 0.24 0.24 0.23 0.23 0.24 0.26 0.27 0.30 0.35 0.40 0.45 0.51 0.53 0.54 0.55 0.56 0.56
0.29 0.35 0.34 0.35 0.37 0.37 0.35 0.36 0.38 0.38 0.38 0.37 0.37 0.36 0.34 0.31 0.28 0.24 0.21 0.18 0.18 0.18 0.18 0.18 0.18 0.17 0.18 0.19 0.19 0.18 0.18 0.19 0.19 0.19 0.20 0.21 0.22 0.24 0.26 0.33 0.41 0.47 0.50 0.51
0.36 0.35 0.32 0.34 0.33 0.37 0.37 0.38 0.39 0.38 0.38 0.36 0.34 0.31 0.27 0.22 0.19 0.17 0.15 0.14 0.14 0.14 0.14 0.14 0.14 0.14 0.16 0.16 0.15 0.15 0.15 0.15 0.15 0.15 0.14 0.14 0.15 0.16 0.18 0.18 0.19 0.22 0.28 0.34
0.36 0.39 0.36 0.37 0.37 0.37 0.38 0.37 0.35 0.33 0.32 0.31 0.27 0.21 0.17 0.15 0.13 0.12 0.12 0.12 0.11 0.11 0.11 0.11 0.12 0.13 0.14 0.15 0.14 0.13 0.13 0.13 0.13 0.13 0.12 0.12 0.12 0.12 0.12 0.13 0.13 0.14 0.15 0.16
0.36 0.36 0.35 0.35 0.34 0.34 0.34 0.31 0.30 0.28 0.26 0.22 0.17 0.16 0.14 0.13 0.13 0.12 0.11 0.11 0.09 0.09 0.09 0.09 0.10 0.12 0.13 0.13 0.13 0.13 0.13 0.13 0.13 0.13 0.12 0.11 0.11 0.11 0.10 0.10 0.10 0.11 0.11 0.11
0.34 0.30 0.31 0.31 0.31 0.30 0.29 0.28 0.26 0.22 0.18 0.15 0.13 0.13 0.13 0.12 0.11 0.11 0.11 0.10 0.10 0.09 0.09 0.09 0.09 0.12 0.13 0.13 0.13 0.12 0.12 0.12 0.12 0.12 0.12 0.12 0.11 0.10 0.10 0.10 0.10 0.10 0.10 0.11
0.36 0.36 0.35 0.32 0.30 0.28 0.26 0.23 0.19 0.15 0.13 0.12 0.12 0.11 0.10 0.10 0.10 0.10 0.10 0.10 0.10 0.10 0.10 0.09 0.10 0.11 0.12 0.12 0.12 0.12 0.12 0.11 0.11 0.11 0.11 0.11 0.11 0.11 0.10 0.10 0.10 0.09 0.09 0.10
0.38 0.36 0.34 0.31 0.29 0.25 0.20 0.15 0.13 0.12 0.12 0.11 0.11 0.10 0.11 0.11 0.12 0.12 0.12 0.11 0.10 0.10 0.10 0.10 0.10 0.11 0.11 0.12 0.11 0.11 0.11 0.11 0.11 0.11 0.11 0.11 0.11 0.11 0.10 0.10 0.09 0.09 0.09 0.09
0.35 0.34 0.31 0.28 0.24 0.18 0.15 0.13 0.12 0.11 0.11 0.11 0.11 0.11 0.11 0.12 0.12 0.12 0.13 0.12 0.12 0.11 0.12 0.11 0.10 0.11 0.12 0.12 0.11 0.11 0.10 0.10 0.11 0.11 0.11 0.10 0.10 0.10 0.10 0.10 0.10 0.09 0.09 0.09
0.32 0.30 0.27 0.20 0.17 0.16 0.14 0.13 0.12 0.12 0.12 0.12 0.12 0.12 0.12 0.13 0.13 0.13 0.13 0.12 0.13 0.13 0.13 0.12 0.11 0.10 0.12 0.12 0.11 0.11 0.11 0.10 0.10 0.09 0.09 0.09 0.09 0.10 0.09 0.09 0.09 0.09 0.09 0.09
0.29 0.25 0.19 0.16 0.14 0.13 0.13 0.13 0.12 0.12 0.12 0.12 0.13 0.13 0.13 0.13 0.13 0.13 0.14 0.13 0.14 0.14 0.13 0.13 0.13 0.12 0.11 0.12 0.12 0.11 0.10 0.10 0.10 0.09 0.09 0.08 0.08 0.09 0.09 0.08 0.09 0.09 0.09 0.09
0.27 0.21 0.17 0.15 0.13 0.13 0.13 0.12 0.12 0.12 0.12 0.12 0.13 0.14 0.13 0.14 0.15 0.13 0.12 0.14 0.14 0.14 0.13 0.13 0.13 0.13 0.12 0.11 0.11 0.11 0.10 0.10 0.09 0.09 0.09 0.08 0.08 0.09 0.09 0.09 0.09 0.09 0.09 0.09
0.24 0.19 0.16 0.15 0.14 0.13 0.12 0.12 0.12 0.13 0.14 0.14 0.15 0.15 0.15 0.14 0.15 0.17 0.16 0.15 0.15 0.15 0.14 0.14 0.13 0.13 0.13 0.12 0.11 0.10 0.10 0.10 0.09 0.09 0.10 0.09 0.09 0.09 0.09 0.09 0.09 0.09 0.09 0.09
0.23 0.19 0.16 0.15 0.14 0.13 0.13 0.13 0.13 0.14 0.15 0.16 0.17 0.17 0.18 0.18 0.16 0.16 0.17 0.17 0.16 0.16 0.15 0.15 0.14 0.14 0.13 0.12 0.12 0.11 0.10 0.10 0.10 0.10 0.10 0.10 0.09 0.09 0.09 0.09 0.09 0.09 0.09 0.09
0.22 0.19 0.17 0.17 0.16 0.16 0.16 0.16 0.14 0.15 0.15 0.15 0.17 0.17 0.17 0.17 0.17 0.17 0.17 0.17 0.17 0.16 0.15 0.15 0.14 0.14 0.13 0.12 0.12 0.12 0.12 0.12 0.12 0.11 0.11 0.11 0.11 0.10 0.10 0.10 0.10 0.10 0.10 0.10
0.23 0.19 0.18 0.18 0.18 0.18 0.17 0.16 0.16 0.15 0.15 0.15 0.15 0.15 0.14 0.14 0.14 0.15 0.16 0.16 0.16 0.15 0.14 0.13 0.13 0.12 0.12 0.11 0.11 0.12 0.12 0.12 0.12 0.12 0.12 0.12 0.12 0.12 0.11 0.11 0.11 0.12 0.11 0.11

GFSNGP_prec_pwat_108.txt.gz
Precipitable_Water
0.27 0.28 0.29 0.29 0.30 0.32 0.34 0.32 0.28 0.29 0.29 0.33 0.36 0.37 0.36 0.40 0.41 0.42 0.43 0.42 0.44 0.49 0.54 0.59 0.64 0.70 0.77 0.80 0.86 0.93 0.93 0.92 0.99 1.08 1.11 1.18 1.25 1.31 1.30 1.30 1.27 1.18 1.12 1.14
0.25 0.29 0.30 0.27 0.31 0.32 0.33 0.33 0.32 0.32 0.30 0.36 0.37 0.40 0.38 0.37 0.39 0.39 0.40 0.41 0.43 0.46 0.50 0.56 0.60 0.66 0.70 0.75 0.82 0.87 0.90 0.95 0.99 1.03 1.08 1.11 1.14 1.15 1.18 1.12 1.10 1.07 1.08 1.07
0.23 0.29 0.29 0.24 0.28 0.30 0.32 0.34 0.34 0.28 0.32 0.35 0.34 0.35 0.37 0.38 0.39 0.40 0.40 0.41 0.42 0.44 0.48 0.53 0.55 0.61 0.68 0.70 0.77 0.81 0.85 0.91 0.93 0.98 0.94 1.03 1.05 1.05 1.04 1.01 0.99 0.98 0.95 0.98
0.24 0.28 0.17 0.28 0.36 0.35 0.31 0.32 0.33 0.32 0.32 0.34 0.35 0.37 0.38 0.40 0.39 0.39 0.42 0.43 0.44 0.45 0.46 0.49 0.54 0.56 0.62 0.67 0.71 0.76 0.78 0.83 0.84 0.91 0.91 0.95 0.94 0.95 0.92 0.94 0.94 0.92 0.92 0.95
0.23 0.22 0.25 0.28 0.31 0.31 0.30 0.28 0.33 0.32 0.34 0.35 0.37 0.38 0.36 0.40 0.41 0.41 0.42 0.44 0.45 0.47 0.48 0.49 0.52 0.56 0.55 0.57 0.62 0.67 0.71 0.74 0.79 0.82 0.85 0.87 0.90 0.86 0.88 0.88 0.88 0.90 0.90 0.90
0.27 0.20 0.17 0.25 0.32 0.37 0.37 0.23 0.34 0.34 0.34 0.34 0.36 0.28 0.32 0.39 0.40 0.41 0.43 0.45 0.45 0.48 0.49 0.48 0.50 0.51 0.51 0.52 0.53 0.55 0.61 0.66 0.71 0.73 0.78 0.77 0.81 0.83 0.82 0.83 0.82 0.83 0.82 0.82
0.26 0.21 0.23 0.31 0.35 0.40 0.24 0.23 0.34 0.34 0.34 0.33 0.31 0.33 0.36 0.38 0.39 0.41 0.42 0.43 0.45 0.46 0.45 0.46 0.49 0.49 0.47 0.48 0.47 0.51 0.54 0.56 0.60 0.63 0.67 0.72 0.73 0.75 0.75 0.76 0.75 0.76 0.78 0.78
0.25 0.21 0.17 0.34 0.34 0.27 0.30 0.34 0.35 0.34 0.34 0.33 0.34 0.35 0.35 0.37 0.38 0.39 0.39 0.40 0.41 0.40 0.41 0.43 0.44 0.44 0.43 0.44 0.48 0.49 0.50 0.51 0.52 0.54 0.56 0.58 0.61 0.65 0.68 0.68 0.67 0.69 0.72 0.74
0.25 0.24 0.31 0.34 0.33 0.37 0.36 0.33 0.34 0.34 0.35 0.35 0.34 0.35 0.36 0.36 0.37 0.36 0.36 0.36 0.36 0.36 0.36 0.37 0.38 0.38 0.36 0.38 0.41 0.42 0.43 0.45 0.48 0.50 0.52 0.54 0.54 0.54 0.55 0.57 0.59 0.60 0.61 0.63
0.26 0.29 0.30 0.32 0.34 0.36 0.36 0.35 0.36 0.36 0.36 0.36 0.35 0.35 0.35 0.35 0.34 0.33 0.33 0.32 0.31 0.29 0.27 0.26 0.26 0.26 0.26 0.27 0.29 0.28 0.28 0.30 0.32 0.35 0.39 0.44 0.48 0.50 0.51 0.51 0.50 0.50 0.52 0.54
0.26 0.27 0.29 0.31 0.33 0.34 0.36 0.36 0.36 0.37 0.37 0.36 0.36 0.35 0.34 0.32 0.32 0.31 0.29 0.26 0.24 0.21 0.20 0.19 0.19 0.19 0.20 0.20 0.20 0.19 0.19 0.20 0.21 0.22 0.23 0.25 0.27 0.30 0.34 0.41 0.46 0.47 0.48 0.49
0.23 0.28 0.28 0.29 0.34 0.36 0.34 0.34 0.36 0.36 0.36 0.37 0.37 0.34 0.32 0.30 0.27 0.23 0.21 0.19 0.18 0.17 0.16 0.16 0.16 0.15 0.16 0.17 0.16 0.15 0.14 0.14 0.14 0.14 0.16 0.18 0.19 0.21 0.25 0.26 0.29 0.32 0.35 0.41
0.30 0.33 0.33 0.34 0.36 0.36 0.35 0.36 0.37 0.36 0.37 0.36 0.35 0.33 0.29 0.23 0.19 0.17 0.15 0.14 0.13 0.13 0.14 0.14 0.13 0.13 0.14 0.14 0.14 0.13 0.12 0.12 0.12 0.11 0.11 0.11 0.12 0.13 0.13 0.16 0.18 0.20 0.23 0.25
0.36 0.35 0.32 0.34 0.33 0.37 0.37 0.37 0.37 0.37 0.36 0.34 0.31 0.27 0.20 0.16 0.15 0.13 0.12 0.12 0.12 0.11 0.11 0.12 0.12 0.12 0.14 0.14 0.13 0.13 0.13 0.12 0.12 0.11 0.11 0.11 0.11 0.11 0.11 0.10 0.09 0.10 0.13 0.14
0.35 0.37 0.34 0.36 0.37 0.37 0.37 0.37 0.34 0.32 0.30 0.26 0.22 0.17 0.15 0.12 0.11 0.11 0.11 0.11 0.10 0.10 0.10 0.11 0.11 0.11 0.13 0.13 0.13 0.12 0.12 0.12 0.12 0.12 0.11 0.11 0.10 0.10 0.10 0.09 0.09 0.09 0.10 0.10
0.37 0.36 0.36 0.35 0.35 0.36 0.35 0.33 0.30 0.28 0.24 0.19 0.16 0.15 0.13 0.12 0.12 0.11 0.10 0.10 0.09 0.08 0.09 0.09 0.10 0.11 0.13 0.13 0.12 0.12 0.12 0.12 0.12 0.12 0.11 0.11 0.10 0.10 0.09 0.09 0.09 0.09 0.08 0.09
0.33 0.31 0.33 0.31 0.31 0.31 0.30 0.30 0.26 0.21 0.16 0.14 0.13 0.13 0.12 0.12 0.11 0.11 0.10 0.11 0.11 0.10 0.09 0.09 0.11 0.12 0.12 0.12 0.12 0.11 0.11 0.12 0.12 0.11 0.11 0.11 0.11 0.10 0.10 0.09 0.09 0.09 0.09 0.09
0.35 0.35 0.33 0.31 0.30 0.29 0.28 0.24 0.20 0.16 0.14 0.13 0.12 0.11 0.11 0.11 0.10 0.11 0.11 0.11 0.11 0.10 0.10 0.11 0.12 0.12 0.12 0.12 0.11 0.11 0.11 0.12 0.12 0.11 0.11 0.11 0.11 0.11 0.10 0.10 0.09 0.09 0.09 0.09
0.37 0.35 0.33 0.32 0.31 0.28 0.22 0.18 0.16 0.14 0.12 0.11 0.11 0.10 0.11 0.11 0.12 0.12 0.12 0.11 0.11 0.10 0.11 0.11 0.12 0.12 0.12 0.12 0.12 0.11 0.11 0.11 0.11 0.11 0.11 0.11 0.11 0.11 0.10 0.10 0.10 0.09 0.09 0.09
0.37 0.36 0.34 0.31 0.28 0.22 0.17 0.15 0.13 0.11 0.11 0.11 0.11 0.11 0.11 0.12 0.12 0.12 0.12 0.11 0.12 0.12 0.12 0.12 0.12 0.11 0.12 0.12 0.12 0.12 0.11 0.11 0.10 0.10 0.10 0.10 0.10 0.09 0.10 0.10 0.10 0.09 0.09 0.09
0.35 0.34 0.31 0.27 0.20 0.18 0.15 0.13 0.11 0.11 0.11 0.12 0.12 0.12 0.12 0.13 0.13 0.13 0.12 0.11 0.12 0.13 0.13 0.13 0.13 0.12 0.12 0.13 0.12 0.11 0.11 0.10 0.10 0.09 0.09 0.08 0.08 0.08 0.09 0.09 0.09 0.09 0.09 0.09
0.33 0.30 0.26 0.19 0.17 0.14 0.13 0.12 0.12 0.11 0.12 0.12 0.13 0.13 0.13 0.13 0.14 0.13 0.14 0.13 0.14 0.14 0.13 0.13 0.13 0.13 0.13 0.12 0.12 0.11 0.11 0.10 0.10 0.09 0.09 0.08 0.07 0.08 0.08 0.08 0.08 0.08 0.09 0.09
0.30 0.27 0.20 0.16 0.14 0.13 0.13 0.12 0.12 0.11 0.12 0.12 0.13 0.13 0.13 0.14 0.14 0.13 0.12 0.15 0.14 0.14 0.14 0.13 0.14 0.14 0.14 0.13 0.12 0.11 0.11 0.10 0.09 0.09 0.09 0.09 0.09 0.08 0.08 0.08 0.08 0.09 0.09 0.09
0.28 0.23 0.17 0.15 0.14 0.13 0.12 0.11 0.11 0.12 0.13 0.13 0.14 0.14 0.14 0.14 0.15 0.16 0.16 0.16 0.16 0.15 0.15 0.15 0.15 0.14 0.14 0.13 0.13 0.12 0.11 0.10 0.10 0.10 0.10 0.10 0.10 0.10 0.09 0.09 0.09 0.09 0.09 0.09
0.28 0.22 0.17 0.15 0.14 0.13 0.13 0.12 0.12 0.13 0.14 0.14 0.15 0.16 0.16 0.16 0.15 0.15 0.16 0.16 0.17 0.16 0.15 0.15 0.15 0.15 0.14 0.13 0.12 0.12 0.11 0.11 0.11 0.11 0.11 0.11 0.11 0.10 0.10 0.10 0.10 0.10 0.10 0.10
0.28 0.23 0.19 0.17 0.16 0.15 0.15 0.14 0.13 0.15 0.15 0.14 0.15 0.16 0.15 0.15 0.14 0.15 0.15 0.16 0.16 0.16 0.15 0.15 0.14 0.14 0.13 0.12 0.11 0.11 0.11 0.11 0.11 0.12 0.11 0.11 0.11 0.11 0.11 0.11 0.11 0.11 0.11 0.11
0.28 0.25 0.21 0.19 0.19 0.18 0.17 0.16 0.15 0.15 0.15 0.14 0.13 0.13 0.13 0.13 0.13 0.14 0.15 0.15 0.15 0.14 0.14 0.13 0.12 0.11 0.11 0.10 0.10 0.11 0.11 0.11 0.12 0.12 0.11 0.11 0.11 0.11 0.11 0.12 0.12 0.12 0.12 0.12

GFSNGP_prec_pwat_114.txt.gz
Precipitable_Water
0.19 0.22 0.24 0.25 0.26 0.27 0.25 0.27 0.24 0.28 0.29 0.32 0.35 0.36 0.39 0.41 0.42 0.43 0.44 0.46 0.48 0.50 0.54 0.57 0.59 0.63 0.69 0.73 0.78 0.81 0.83 0.88 0.90 0.94 0.96 0.96 0.98 0.97 1.03 1.07 1.13 1.16 1.15 1.11
0.23 0.26 0.26 0.25 0.27 0.30 0.30 0.29 0.30 0.31 0.29 0.37 0.38 0.39 0.39 0.40 0.41 0.41 0.43 0.45 0.47 0.50 0.50 0.53 0.57 0.60 0.65 0.69 0.73 0.77 0.80 0.82 0.84 0.88 0.90 0.91 0.92 0.95 1.00 1.05 1.07 1.08 1.06 1.03
0.20 0.25 0.26 0.22 0.27 0.30 0.30 0.33 0.32 0.28 0.32 0.37 0.35 0.36 0.37 0.39 0.41 0.41 0.42 0.44 0.45 0.44 0.46 0.49 0.53 0.56 0.58 0.63 0.70 0.73 0.74 0.77 0.80 0.84 0.86 0.88 0.92 0.93 0.94 0.95 0.99 0.98 0.98 1.00
0.21 0.24 0.17 0.27 0.37 0.35 0.32 0.33 0.35 0.35 0.35 0.36 0.36 0.38 0.39 0.41 0.40 0.41 0.42 0.43 0.44 0.45 0.46 0.49 0.51 0.53 0.56 0.59 0.64 0.69 0.70 0.72 0.76 0.78 0.79 0.84 0.85 0.86 0.88 0.87 0.92 0.92 0.91 0.92
0.20 0.20 0.25 0.29 0.33 0.33 0.31 0.30 0.35 0.34 0.34 0.36 0.37 0.38 0.37 0.40 0.41 0.41 0.42 0.42 0.42 0.43 0.43 0.45 0.47 0.50 0.52 0.53 0.55 0.56 0.60 0.65 0.68 0.72 0.73 0.76 0.77 0.78 0.82 0.82 0.85 0.86 0.87 0.87
0.24 0.20 0.17 0.28 0.35 0.39 0.38 0.26 0.36 0.36 0.35 0.35 0.37 0.30 0.32 0.39 0.40 0.39 0.39 0.38 0.37 0.38 0.38 0.37 0.39 0.41 0.41 0.43 0.46 0.48 0.52 0.54 0.57 0.60 0.62 0.65 0.69 0.71 0.75 0.77 0.77 0.78 0.80 0.80
0.24 0.24 0.25 0.32 0.36 0.40 0.25 0.27 0.37 0.37 0.37 0.37 0.33 0.35 0.37 0.39 0.37 0.36 0.34 0.32 0.30 0.27 0.25 0.25 0.27 0.27 0.26 0.28 0.31 0.35 0.37 0.41 0.45 0.49 0.53 0.56 0.57 0.59 0.63 0.66 0.69 0.71 0.72 0.74
0.26 0.23 0.20 0.36 0.35 0.30 0.36 0.38 0.38 0.37 0.37 0.36 0.36 0.36 0.36 0.34 0.32 0.30 0.27 0.24 0.22 0.19 0.18 0.20 0.20 0.19 0.18 0.19 0.22 0.24 0.25 0.25 0.27 0.30 0.33 0.37 0.40 0.42 0.46 0.49 0.51 0.54 0.56 0.58
0.28 0.27 0.34 0.37 0.36 0.42 0.41 0.37 0.36 0.36 0.36 0.36 0.35 0.34 0.33 0.31 0.28 0.25 0.22 0.19 0.19 0.16 0.15 0.16 0.16 0.16 0.14 0.15 0.16 0.15 0.17 0.17 0.19 0.20 0.21 0.22 0.23 0.24 0.26 0.28 0.30 0.32 0.35 0.37
0.30 0.32 0.34 0.37 0.39 0.41 0.40 0.38 0.38 0.38 0.37 0.37 0.34 0.33 0.31 0.29 0.25 0.21 0.18 0.17 0.16 0.15 0.14 0.13 0.14 0.14 0.14 0.14 0.15 0.13 0.13 0.14 0.15 0.15 0.16 0.16 0.17 0.18 0.17 0.18 0.19 0.20 0.21 0.22
0.30 0.33 0.35 0.37 0.37 0.38 0.38 0.38 0.38 0.39 0.38 0.36 0.34 0.32 0.29 0.25 0.21 0.19 0.16 0.16 0.15 0.14 0.13 0.13 0.14 0.14 0.14 0.14 0.14 0.13 0.13 0.13 0.13 0.14 0.14 0.15 0.15 0.14 0.14 0.15 0.15 0.15 0.16 0.17
0.28 0.34 0.35 0.33 0.37 0.38 0.36 0.36 0.38 0.37 0.36 0.35 0.32 0.28 0.24 0.19 0.17 0.15 0.14 0.14 0.13 0.13 0.12 0.12 0.12 0.13 0.13 0.14 0.14 0.13 0.13 0.13 0.13 0.13 0.13 0.13 0.13 0.14 0.14 0.13 0.13 0.14 0.15 0.15
0.34 0.37 0.37 0.37 0.38 0.39 0.37 0.38 0.38 0.37 0.35 0.32 0.29 0.24 0.19 0.15 0.14 0.13 0.11 0.11 0.11 0.11 0.12 0.12 0.12 0.12 0.14 0.14 0.14 0.14 0.12 0.13 0.13 0.13 0.13 0.12 0.13 0.12 0.11 0.14 0.14 0.13 0.12 0.12
0.39 0.38 0.33 0.36 0.35 0.39 0.38 0.38 0.38 0.37 0.35 0.31 0.25 0.19 0.15 0.13 0.12 0.12 0.11 0.11 0.11 0.11 0.12 0.12 0.12 0.13 0.15 0.15 0.14 0.14 0.15 0.14 0.14 0.14 0.14 0.14 0.14 0.13 0.13 0.12 0.11 0.11 0.13 0.12
0.37 0.39 0.37 0.39 0.39 0.38 0.38 0.37 0.35 0.34 0.32 0.26 0.19 0.15 0.13 0.12 0.11 0.12 0.12 0.11 0.10 0.11 0.11 0.12 0.11 0.11 0.13 0.14 0.14 0.14 0.13 0.13 0.15 0.15 0.15 0.14 0.14 0.13 0.13 0.12 0.12 0.11 0.11 0.11
0.39 0.39 0.38 0.36 0.36 0.36 0.36 0.35 0.34 0.31 0.26 0.19 0.15 0.13 0.13 0.12 0.12 0.12 0.12 0.11 0.10 0.09 0.11 0.11 0.11 0.12 0.12 0.13 0.14 0.14 0.15 0.13 0.14 0.14 0.13 0.13 0.13 0.13 0.12 0.12 0.12 0.12 0.11 0.10
0.35 0.35 0.35 0.34 0.35 0.35 0.36 0.35 0.31 0.26 0.19 0.15 0.13 0.13 0.12 0.12 0.12 0.12 0.11 0.11 0.10 0.10 0.12 0.12 0.12 0.12 0.13 0.13 0.14 0.14 0.15 0.14 0.13 0.14 0.13 0.12 0.13 0.12 0.12 0.11 0.11 0.10 0.10 0.10
0.39 0.38 0.38 0.37 0.36 0.36 0.36 0.34 0.29 0.21 0.16 0.14 0.13 0.12 0.11 0.12 0.11 0.11 0.11 0.11 0.11 0.11 0.11 0.11 0.12 0.13 0.13 0.13 0.14 0.14 0.14 0.13 0.13 0.12 0.12 0.12 0.11 0.12 0.12 0.11 0.11 0.11 0.11 0.11
0.40 0.39 0.39 0.38 0.38 0.36 0.34 0.31 0.24 0.17 0.15 0.12 0.11 0.11 0.12 0.12 0.12 0.12 0.12 0.12 0.11 0.12 0.12 0.12 0.12 0.13 0.13 0.13 0.13 0.14 0.13 0.13 0.12 0.12 0.12 0.11 0.12 0.11 0.11 0.11 0.10 0.10 0.10 0.10
0.37 0.37 0.36 0.35 0.34 0.33 0.31 0.25 0.17 0.15 0.13 0.12 0.11 0.12 0.12 0.12 0.13 0.13 0.13 0.13 0.13 0.13 0.13 0.13 0.13 0.13 0.13 0.13 0.13 0.14 0.14 0.14 0.13 0.12 0.12 0.12 0.11 0.11 0.11 0.11 0.10 0.10 0.10 0.10
0.36 0.35 0.33 0.32 0.31 0.30 0.25 0.19 0.15 0.12 0.12 0.11 0.12 0.12 0.12 0.13 0.13 0.13 0.13 0.14 0.14 0.13 0.14 0.13 0.13 0.13 0.14 0.14 0.14 0.15 0.15 0.14 0.13 0.13 0.12 0.12 0.11 0.11 0.11 0.11 0.10 0.10 0.10 0.10
0.38 0.34 0.32 0.31 0.29 0.24 0.18 0.15 0.14 0.12 0.11 0.11 0.12 0.12 0.12 0.13 0.14 0.14 0.14 0.14 0.15 0.14 0.14 0.15 0.15 0.14 0.14 0.14 0.15 0.15 0.14 0.14 0.13 0.13 0.12 0.12 0.12 0.11 0.11 0.11 0.10 0.11 0.11 0.11
0.38 0.36 0.33 0.31 0.26 0.18 0.15 0.14 0.13 0.12 0.11 0.11 0.12 0.12 0.13 0.15 0.15 0.15 0.14 0.16 0.15 0.16 0.15 0.16 0.16 0.15 0.15 0.16 0.15 0.14 0.14 0.13 0.13 0.12 0.12 0.12 0.12 0.11 0.11 0.11 0.11 0.11 0.11 0.11
0.38 0.35 0.33 0.30 0.21 0.15 0.13 0.13 0.12 0.12 0.12 0.13 0.13 0.14 0.14 0.15 0.16 0.16 0.17 0.16 0.16 0.16 0.16 0.16 0.16 0.16 0.15 0.15 0.15 0.14 0.13 0.13 0.12 0.12 0.12 0.11 0.12 0.11 0.11 0.11 0.11 0.11 0.11 0.12
0.35 0.33 0.30 0.23 0.17 0.14 0.14 0.14 0.12 0.12 0.12 0.13 0.14 0.15 0.15 0.16 0.16 0.17 0.16 0.16 0.16 0.15 0.17 0.16 0.15 0.15 0.15 0.14 0.13 0.13 0.12 0.12 0.12 0.11 0.11 0.10 0.10 0.11 0.11 0.11 0.11 0.11 0.11 0.11
0.34 0.31 0.29 0.24 0.18 0.16 0.16 0.15 0.15 0.15 0.15 0.16 0.17 0.18 0.18 0.18 0.16 0.15 0.16 0.15 0.15 0.15 0.15 0.16 0.15 0.15 0.14 0.13 0.12 0.12 0.11 0.11 0.10 0.10 0.09 0.09 0.09 0.09 0.10 0.10 0.10 0.10 0.11 0.11
0.32 0.31 0.29 0.26 0.24 0.21 0.19 0.17 0.18 0.17 0.19 0.19 0.18 0.18 0.17 0.16 0.15 0.15 0.15 0.15 0.15 0.15 0.15 0.15 0.15 0.13 0.12 0.11 0.11 0.10 0.10 0.09 0.09 0.08 0.08 0.08 0.08 0.08 0.08 0.09 0.09 0.09 0.10 0.10

GFSNGP_prec_pwat_117.txt.gz
Precipitable_Water
0.16 0.22 0.22 0.22 0.23 0.27 0.25 0.26 0.23 0.26 0.28 0.32 0.36 0.37 0.39 0.41 0.43 0.43 0.44 0.46 0.48 0.50 0.52 0.55 0.59 0.62 0.64 0.66 0.69 0.72 0.76 0.79 0.81 0.84 0.85 0.87 0.92 0.90 0.94 0.96 0.98 1.03 1.08 1.13
0.18 0.22 0.24 0.23 0.26 0.27 0.28 0.30 0.29 0.30 0.29 0.38 0.40 0.41 0.39 0.40 0.41 0.42 0.43 0.45 0.47 0.49 0.49 0.52 0.54 0.57 0.60 0.64 0.67 0.70 0.71 0.74 0.79 0.80 0.83 0.84 0.86 0.89 0.88 0.88 0.92 0.91 0.98 1.04
0.20 0.26 0.25 0.20 0.25 0.28 0.31 0.33 0.33 0.27 0.33 0.38 0.36 0.37 0.38 0.40 0.41 0.41 0.43 0.44 0.45 0.46 0.47 0.49 0.51 0.53 0.55 0.59 0.65 0.68 0.69 0.70 0.73 0.76 0.79 0.80 0.82 0.85 0.86 0.86 0.87 0.88 0.91 0.93
0.22 0.24 0.15 0.27 0.36 0.36 0.33 0.34 0.36 0.35 0.37 0.38 0.37 0.39 0.41 0.42 0.42 0.41 0.42 0.42 0.41 0.42 0.42 0.46 0.48 0.50 0.53 0.55 0.58 0.61 0.64 0.66 0.69 0.72 0.73 0.75 0.76 0.78 0.81 0.82 0.84 0.86 0.90 0.94
0.21 0.21 0.25 0.27 0.33 0.33 0.31 0.30 0.38 0.36 0.36 0.37 0.39 0.40 0.39 0.42 0.42 0.40 0.39 0.38 0.36 0.35 0.34 0.34 0.35 0.38 0.41 0.44 0.48 0.50 0.52 0.55 0.60 0.64 0.67 0.69 0.70 0.72 0.76 0.75 0.79 0.81 0.83 0.85
0.26 0.19 0.18 0.29 0.36 0.41 0.39 0.26 0.38 0.38 0.36 0.36 0.37 0.32 0.34 0.40 0.39 0.36 0.32 0.30 0.27 0.25 0.24 0.23 0.24 0.25 0.24 0.25 0.27 0.30 0.34 0.38 0.44 0.49 0.52 0.55 0.60 0.67 0.71 0.73 0.75 0.76 0.75 0.75
0.24 0.23 0.27 0.33 0.37 0.41 0.26 0.28 0.39 0.40 0.39 0.38 0.35 0.37 0.39 0.38 0.34 0.31 0.27 0.22 0.22 0.20 0.19 0.19 0.20 0.19 0.17 0.18 0.19 0.23 0.24 0.24 0.25 0.29 0.32 0.35 0.39 0.42 0.45 0.48 0.51 0.58 0.65 0.70
0.26 0.24 0.21 0.37 0.36 0.30 0.38 0.41 0.41 0.41 0.41 0.38 0.38 0.38 0.36 0.33 0.29 0.25 0.21 0.20 0.18 0.16 0.16 0.17 0.17 0.16 0.14 0.15 0.17 0.18 0.18 0.19 0.19 0.19 0.21 0.21 0.22 0.23 0.26 0.26 0.28 0.32 0.35 0.37
0.28 0.28 0.37 0.40 0.39 0.41 0.43 0.41 0.40 0.39 0.39 0.38 0.36 0.35 0.33 0.29 0.25 0.21 0.19 0.18 0.17 0.15 0.14 0.15 0.15 0.15 0.13 0.15 0.16 0.15 0.16 0.15 0.16 0.18 0.16 0.17 0.17 0.16 0.17 0.20 0.19 0.20 0.20 0.22
0.30 0.32 0.35 0.38 0.40 0.40 0.44 0.41 0.41 0.40 0.38 0.38 0.34 0.33 0.30 0.26 0.21 0.18 0.17 0.16 0.16 0.15 0.13 0.13 0.15 0.15 0.15 0.15 0.17 0.15 0.14 0.16 0.17 0.16 0.17 0.16 0.15 0.15 0.14 0.15 0.16 0.17 0.18 0.17
0.31 0.34 0.36 0.38 0.40 0.40 0.42 0.40 0.39 0.39 0.38 0.36 0.35 0.32 0.27 0.22 0.18 0.17 0.16 0.16 0.15 0.14 0.13 0.13 0.14 0.14 0.15 0.15 0.15 0.16 0.16 0.16 0.17 0.17 0.17 0.18 0.18 0.17 0.15 0.15 0.14 0.14 0.15 0.17
0.31 0.35 0.37 0.38 0.41 0.42 0.40 0.38 0.39 0.38 0.36 0.36 0.34 0.29 0.24 0.18 0.16 0.14 0.13 0.13 0.13 0.13 0.13 0.13 0.13 0.14 0.14 0.15 0.16 0.15 0.15 0.15 0.15 0.16 0.16 0.16 0.16 0.17 0.18 0.17 0.16 0.14 0.14 0.14
0.37 0.40 0.41 0.42 0.42 0.41 0.38 0.38 0.39 0.38 0.36 0.32 0.29 0.24 0.18 0.15 0.14 0.12 0.11 0.11 0.12 0.12 0.13 0.13 0.13 0.13 0.15 0.15 0.15 0.16 0.15 0.16 0.16 0.15 0.15 0.15 0.15 0.15 0.14 0.16 0.17 0.16 0.14 0.13
0.42 0.41 0.37 0.40 0.37 0.40 0.39 0.39 0.39 0.37 0.35 0.31 0.27 0.21 0.16 0.13 0.12 0.11 0.10 0.10 0.11 0.12 0.13 0.12 0.12 0.12 0.15 0.16 0.16 0.15 0.15 0.16 0.17 0.17 0.17 0.16 0.16 0.15 0.15 0.14 0.13 0.14 0.15 0.13
0.39 0.41 0.39 0.41 0.40 0.39 0.39 0.38 0.36 0.34 0.32 0.28 0.23 0.17 0.14 0.12 0.12 0.11 0.12 0.12 0.13 0.12 0.12 0.12 0.12 0.12 0.13 0.15 0.16 0.16 0.15 0.15 0.17 0.17 0.16 0.16 0.16 0.15 0.15 0.14 0.14 0.14 0.14 0.13
0.38 0.39 0.40 0.38 0.38 0.38 0.37 0.35 0.34 0.33 0.31 0.26 0.18 0.14 0.13 0.12 0.12 0.12 0.12 0.12 0.12 0.11 0.12 0.11 0.11 0.12 0.13 0.14 0.16 0.16 0.17 0.15 0.15 0.16 0.15 0.14 0.15 0.14 0.13 0.13 0.13 0.12 0.12 0.12
0.35 0.35 0.37 0.37 0.37 0.37 0.36 0.36 0.35 0.33 0.28 0.20 0.15 0.14 0.12 0.12 0.13 0.13 0.12 0.12 0.12 0.12 0.12 0.12 0.12 0.12 0.13 0.13 0.15 0.16 0.16 0.15 0.14 0.14 0.14 0.14 0.13 0.13 0.13 0.13 0.12 0.12 0.12 0.13
0.40 0.41 0.42 0.40 0.38 0.37 0.37 0.36 0.34 0.30 0.24 0.18 0.14 0.13 0.12 0.12 0.12 0.12 0.12 0.12 0.12 0.12 0.12 0.12 0.13 0.14 0.13 0.13 0.14 0.15 0.15 0.15 0.14 0.14 0.14 0.14 0.13 0.13 0.13 0.13 0.12 0.12 0.12 0.12
0.41 0.40 0.41 0.41 0.40 0.39 0.38 0.37 0.33 0.28 0.21 0.16 0.13 0.11 0.12 0.13 0.12 0.12 0.13 0.12 0.13 0.14 0.13 0.13 0.13 0.14 0.14 0.13 0.14 0.15 0.16 0.16 0.15 0.14 0.15 0.14 0.14 0.13 0.13 0.12 0.12 0.12 0.12 0.12
0.41 0.42 0.41 0.40 0.40 0.40 0.38 0.36 0.31 0.22 0.17 0.14 0.13 0.12 0.12 0.12 0.13 0.13 0.13 0.14 0.14 0.14 0.14 0.14 0.14 0.14 0.13 0.14 0.14 0.16 0.16 0.16 0.15 0.15 0.15 0.14 0.14 0.13 0.13 0.13 0.12 0.12 0.12 0.12
0.40 0.40 0.39 0.39 0.38 0.38 0.37 0.33 0.24 0.17 0.15 0.13 0.12 0.12 0.13 0.13 0.14 0.13 0.13 0.16 0.17 0.14 0.14 0.14 0.14 0.14 0.15 0.15 0.14 0.17 0.17 0.16 0.15 0.15 0.14 0.14 0.14 0.14 0.13 0.13 0.13 0.12 0.12 0.12
0.38 0.37 0.36 0.36 0.35 0.34 0.32 0.25 0.19 0.15 0.13 0.13 0.14 0.14 0.13 0.13 0.13 0.13 0.14 0.16 0.16 0.15 0.15 0.16 0.16 0.16 0.15 0.15 0.16 0.17 0.16 0.16 0.15 0.14 0.14 0.14 0.13 0.13 0.12 0.12 0.12 0.12 0.12 0.12
0.39 0.36 0.34 0.33 0.32 0.30 0.26 0.19 0.15 0.13 0.13 0.13 0.12 0.13 0.15 0.16 0.16 0.15 0.16 0.18 0.16 0.17 0.15 0.17 0.17 0.16 0.15 0.16 0.17 0.17 0.16 0.15 0.14 0.14 0.14 0.13 0.12 0.12 0.12 0.12 0.11 0.11 0.11 0.11
0.39 0.37 0.35 0.34 0.31 0.27 0.19 0.15 0.14 0.14 0.14 0.14 0.14 0.15 0.16 0.15 0.16 0.17 0.18 0.18 0.16 0.16 0.16 0.17 0.16 0.15 0.14 0.17 0.17 0.16 0.14 0.14 0.14 0.14 0.12 0.12 0.12 0.11 0.11 0.11 0.11 0.11 0.11 0.11
0.40 0.38 0.35 0.32 0.28 0.24 0.17 0.14 0.15 0.14 0.13 0.14 0.14 0.15 0.16 0.17 0.18 0.20 0.18 0.18 0.17 0.16 0.18 0.16 0.15 0.14 0.16 0.16 0.15 0.14 0.13 0.13 0.13 0.12 0.11 0.10 0.10 0.10 0.10 0.10 0.10 0.10 0.10 0.10
0.38 0.35 0.34 0.31 0.27 0.21 0.17 0.15 0.15 0.15 0.15 0.16 0.18 0.19 0.19 0.19 0.19 0.18 0.18 0.17 0.16 0.16 0.16 0.16 0.16 0.16 0.15 0.14 0.13 0.13 0.12 0.12 0.11 0.10 0.09 0.09 0.09 0.09 0.09 0.09 0.08 0.09 0.09 0.09
0.37 0.36 0.34 0.31 0.29 0.25 0.20 0.19 0.19 0.18 0.19 0.20 0.20 0.21 0.20 0.20 0.19 0.19 0.17 0.17 0.17 0.16 0.16 0.16 0.16 0.15 0.13 0.12 0.12 0.12 0.11 0.10 0.10 0.09 0.09 0.08 0.08 0.08 0.08 0.08 0.08 0.08 0.08 0.08

GFSNGP_prec_pwat_120.txt.gz
Precipitable_Water
0.18 0.17 0.19 0.21 0.22 0.23 0.24 0.25 0.22 0.26 0.28 0.30 0.34 0.36 0.40 0.41 0.43 0.43 0.44 0.45 0.46 0.48 0.50 0.53 0.55 0.58 0.61 0.62 0.64 0.66 0.68 0.69 0.70 0.73 0.75 0.78 0.79 0.76 0.72 0.73 0.77 0.91 0.96 1.04
0.14 0.17 0.18 0.19 0.21 0.21 0.22 0.26 0.26 0.28 0.28 0.37 0.39 0.41 0.40 0.40 0.41 0.41 0.43 0.44 0.46 0.47 0.49 0.51 0.52 0.54 0.56 0.59 0.61 0.64 0.65 0.65 0.68 0.72 0.74 0.77 0.79 0.80 0.84 0.77 0.78 0.91 0.95 0.92
0.12 0.24 0.27 0.20 0.24 0.27 0.29 0.33 0.31 0.26 0.33 0.39 0.37 0.37 0.38 0.39 0.41 0.41 0.42 0.42 0.41 0.42 0.44 0.46 0.47 0.50 0.51 0.53 0.58 0.62 0.63 0.65 0.67 0.69 0.70 0.74 0.76 0.76 0.80 0.79 0.82 0.84 0.85 0.89
0.19 0.24 0.15 0.25 0.35 0.33 0.32 0.35 0.38 0.35 0.37 0.39 0.38 0.40 0.41 0.42 0.41 0.40 0.38 0.34 0.32 0.32 0.30 0.31 0.32 0.34 0.37 0.40 0.43 0.47 0.51 0.56 0.63 0.65 0.67 0.69 0.71 0.73 0.74 0.73 0.77 0.79 0.80 0.82
0.20 0.21 0.26 0.27 0.31 0.32 0.32 0.31 0.39 0.36 0.38 0.39 0.40 0.40 0.39 0.42 0.39 0.35 0.31 0.28 0.26 0.26 0.24 0.24 0.23 0.22 0.22 0.23 0.24 0.26 0.28 0.32 0.36 0.43 0.49 0.55 0.62 0.68 0.71 0.70 0.73 0.75 0.75 0.76
0.24 0.20 0.18 0.31 0.35 0.41 0.40 0.26 0.40 0.38 0.37 0.37 0.38 0.31 0.35 0.40 0.36 0.31 0.26 0.24 0.21 0.21 0.21 0.19 0.19 0.19 0.17 0.16 0.18 0.18 0.21 0.20 0.22 0.23 0.25 0.30 0.37 0.39 0.43 0.47 0.54 0.59 0.64 0.67
0.23 0.22 0.26 0.35 0.38 0.40 0.25 0.29 0.41 0.40 0.39 0.38 0.36 0.38 0.40 0.37 0.31 0.25 0.21 0.20 0.19 0.18 0.16 0.16 0.17 0.16 0.15 0.15 0.16 0.19 0.19 0.19 0.16 0.17 0.18 0.20 0.22 0.24 0.26 0.27 0.27 0.29 0.33 0.36
0.25 0.22 0.20 0.38 0.37 0.29 0.38 0.42 0.42 0.44 0.42 0.40 0.41 0.40 0.37 0.31 0.25 0.22 0.19 0.18 0.16 0.15 0.14 0.16 0.16 0.15 0.15 0.15 0.17 0.18 0.18 0.18 0.18 0.17 0.16 0.15 0.15 0.17 0.19 0.20 0.21 0.20 0.22 0.22
0.31 0.29 0.39 0.42 0.42 0.44 0.43 0.42 0.43 0.43 0.43 0.41 0.38 0.36 0.32 0.27 0.22 0.19 0.18 0.17 0.17 0.14 0.14 0.15 0.15 0.16 0.14 0.16 0.18 0.16 0.17 0.17 0.17 0.19 0.18 0.17 0.15 0.14 0.14 0.15 0.16 0.17 0.17 0.18
0.29 0.33 0.35 0.39 0.42 0.44 0.43 0.43 0.44 0.43 0.41 0.39 0.36 0.34 0.29 0.24 0.20 0.17 0.16 0.15 0.15 0.14 0.13 0.14 0.16 0.15 0.16 0.16 0.17 0.18 0.16 0.18 0.18 0.18 0.18 0.18 0.17 0.16 0.14 0.13 0.13 0.13 0.14 0.14
0.28 0.33 0.36 0.38 0.41 0.44 0.42 0.44 0.43 0.42 0.40 0.39 0.35 0.31 0.27 0.21 0.18 0.16 0.15 0.14 0.14 0.13 0.13 0.14 0.15 0.15 0.16 0.17 0.17 0.17 0.17 0.17 0.18 0.18 0.18 0.19 0.18 0.18 0.16 0.16 0.15 0.13 0.13 0.14
0.26 0.36 0.36 0.37 0.42 0.44 0.41 0.42 0.41 0.40 0.38 0.37 0.34 0.29 0.25 0.19 0.16 0.14 0.13 0.13 0.12 0.13 0.12 0.13 0.14 0.14 0.15 0.16 0.16 0.16 0.17 0.17 0.17 0.17 0.17 0.17 0.17 0.18 0.20 0.20 0.18 0.16 0.15 0.14
0.34 0.41 0.42 0.43 0.45 0.45 0.41 0.42 0.41 0.39 0.38 0.35 0.32 0.28 0.20 0.15 0.14 0.12 0.12 0.12 0.12 0.12 0.13 0.12 0.12 0.13 0.15 0.16 0.16 0.16 0.16 0.17 0.17 0.16 0.16 0.16 0.16 0.15 0.14 0.17 0.19 0.18 0.16 0.14
0.38 0.40 0.39 0.42 0.41 0.44 0.43 0.42 0.41 0.39 0.36 0.33 0.29 0.24 0.19 0.14 0.13 0.12 0.11 0.12 0.12 0.13 0.12 0.12 0.12 0.12 0.15 0.17 0.17 0.16 0.14 0.16 0.17 0.16 0.15 0.16 0.16 0.15 0.15 0.14 0.13 0.13 0.16 0.14
0.37 0.40 0.42 0.43 0.44 0.43 0.43 0.40 0.36 0.34 0.32 0.30 0.28 0.22 0.17 0.14 0.12 0.12 0.12 0.12 0.13 0.13 0.12 0.12 0.11 0.12 0.14 0.16 0.17 0.17 0.15 0.14 0.16 0.16 0.15 0.15 0.15 0.15 0.14 0.14 0.13 0.13 0.13 0.12
0.37 0.39 0.41 0.40 0.41 0.42 0.41 0.38 0.35 0.33 0.31 0.30 0.25 0.20 0.16 0.13 0.12 0.12 0.13 0.14 0.13 0.11 0.12 0.12 0.12 0.12 0.13 0.15 0.16 0.16 0.17 0.15 0.15 0.16 0.15 0.14 0.14 0.14 0.13 0.13 0.13 0.12 0.12 0.12
0.34 0.35 0.37 0.38 0.40 0.40 0.39 0.39 0.36 0.34 0.31 0.28 0.23 0.18 0.14 0.13 0.12 0.12 0.12 0.12 0.12 0.12 0.13 0.12 0.12 0.13 0.12 0.14 0.15 0.16 0.16 0.16 0.15 0.16 0.15 0.14 0.15 0.14 0.14 0.13 0.13 0.12 0.12 0.13
0.39 0.41 0.41 0.41 0.40 0.40 0.40 0.39 0.37 0.34 0.31 0.27 0.21 0.16 0.13 0.12 0.12 0.12 0.11 0.12 0.12 0.12 0.12 0.12 0.13 0.14 0.13 0.13 0.15 0.16 0.16 0.16 0.16 0.16 0.16 0.15 0.15 0.15 0.14 0.14 0.13 0.13 0.13 0.13
0.41 0.42 0.44 0.43 0.42 0.41 0.40 0.38 0.36 0.35 0.32 0.24 0.17 0.13 0.13 0.13 0.12 0.12 0.12 0.13 0.14 0.14 0.12 0.13 0.14 0.14 0.14 0.13 0.13 0.16 0.16 0.16 0.16 0.16 0.16 0.15 0.15 0.15 0.14 0.15 0.14 0.13 0.13 0.12
0.40 0.43 0.45 0.44 0.43 0.42 0.39 0.38 0.37 0.35 0.29 0.20 0.15 0.13 0.12 0.13 0.13 0.12 0.14 0.14 0.14 0.13 0.14 0.13 0.14 0.15 0.15 0.15 0.13 0.16 0.16 0.16 0.15 0.16 0.15 0.15 0.15 0.14 0.15 0.14 0.14 0.13 0.13 0.13
0.41 0.42 0.42 0.42 0.41 0.41 0.40 0.40 0.37 0.31 0.24 0.17 0.14 0.13 0.13 0.14 0.14 0.14 0.16 0.17 0.18 0.15 0.14 0.15 0.15 0.15 0.14 0.13 0.14 0.16 0.16 0.15 0.15 0.15 0.15 0.14 0.14 0.14 0.13 0.13 0.13 0.12 0.12 0.12
0.42 0.41 0.41 0.41 0.40 0.40 0.40 0.38 0.34 0.27 0.18 0.15 0.15 0.14 0.14 0.13 0.14 0.15 0.18 0.17 0.17 0.15 0.14 0.16 0.17 0.16 0.15 0.13 0.15 0.17 0.16 0.16 0.16 0.15 0.14 0.14 0.13 0.12 0.12 0.12 0.12 0.12 0.12 0.12
0.40 0.40 0.39 0.38 0.37 0.37 0.36 0.34 0.27 0.20 0.16 0.14 0.14 0.14 0.15 0.15 0.16 0.17 0.17 0.18 0.18 0.16 0.15 0.17 0.17 0.16 0.14 0.15 0.17 0.16 0.16 0.15 0.14 0.14 0.14 0.13 0.12 0.12 0.11 0.11 0.11 0.11 0.11 0.11
0.39 0.37 0.36 0.36 0.36 0.34 0.31 0.27 0.22 0.17 0.15 0.14 0.13 0.16 0.19 0.18 0.17 0.18 0.18 0.17 0.17 0.16 0.16 0.17 0.17 0.16 0.15 0.16 0.16 0.16 0.15 0.14 0.13 0.13 0.12 0.12 0.11 0.10 0.10 0.10 0.10 0.10 0.09 0.09
0.40 0.38 0.37 0.34 0.32 0.31 0.28 0.23 0.18 0.15 0.14 0.14 0.15 0.17 0.19 0.21 0.21 0.20 0.20 0.19 0.17 0.17 0.18 0.18 0.17 0.16 0.16 0.16 0.15 0.14 0.13 0.13 0.12 0.12 0.11 0.10 0.10 0.10 0.09 0.09 0.09 0.08 0.08 0.08
0.39 0.38 0.37 0.35 0.32 0.30 0.26 0.22 0.17 0.15 0.14 0.15 0.16 0.17 0.19 0.20 0.20 0.20 0.19 0.18 0.18 0.18 0.20 0.20 0.17 0.16 0.16 0.14 0.13 0.13 0.12 0.12 0.11 0.11 0.10 0.09 0.09 0.09 0.08 0.08 0.08 0.08 0.07 0.07
0.40 0.39 0.37 0.35 0.33 0.29 0.25 0.21 0.18 0.16 0.17 0.19 0.19 0.22 0.22 0.22 0.22 0.22 0.22 0.22 0.21 0.20 0.19 0.17 0.17 0.17 0.15 0.13 0.12 0.12 0.11 0.11 0.10 0.09 0.09 0.09 0.08 0.08 0.07 0.07 0.07 0.07 0.07 0.07

GFSNGP_prec_pwat_123.txt.gz
Precipitable_Water
0.21 0.20 0.16 0.15 0.14 0.20 0.22 0.24 0.21 0.21 0.25 0.29 0.32 0.34 0.36 0.40 0.42 0.42 0.43 0.45 0.46 0.47 0.48 0.50 0.50 0.53 0.55 0.57 0.59 0.61 0.60 0.61 0.62 0.65 0.70 0.72 0.72 0.73 0.72 0.72 0.72 0.74 0.73 0.67
0.17 0.16 0.17 0.17 0.16 0.18 0.20 0.20 0.22 0.24 0.24 0.34 0.37 0.39 0.39 0.40 0.41 0.41 0.42 0.42 0.42 0.42 0.42 0.43 0.45 0.47 0.50 0.54 0.57 0.60 0.60 0.61 0.63 0.65 0.68 0.68 0.71 0.72 0.75 0.76 0.77 0.77 0.76 0.75
0.12 0.20 0.23 0.16 0.22 0.22 0.23 0.27 0.28 0.24 0.31 0.38 0.36 0.38 0.39 0.40 0.41 0.41 0.39 0.36 0.32 0.28 0.28 0.28 0.30 0.30 0.31 0.33 0.36 0.40 0.48 0.56 0.60 0.62 0.63 0.65 0.67 0.69 0.71 0.71 0.71 0.74 0.74 0.77
0.12 0.17 0.12 0.22 0.32 0.32 0.30 0.33 0.37 0.37 0.38 0.39 0.39 0.40 0.41 0.43 0.41 0.37 0.33 0.29 0.25 0.23 0.23 0.22 0.23 0.22 0.21 0.22 0.21 0.21 0.22 0.27 0.34 0.40 0.45 0.51 0.57 0.61 0.64 0.66 0.66 0.67 0.69 0.72
0.14 0.17 0.20 0.25 0.30 0.30 0.29 0.31 0.39 0.37 0.38 0.38 0.41 0.40 0.39 0.42 0.38 0.33 0.27 0.24 0.22 0.22 0.20 0.19 0.18 0.18 0.17 0.17 0.17 0.18 0.16 0.16 0.19 0.22 0.26 0.29 0.31 0.34 0.40 0.44 0.48 0.53 0.57 0.61
0.22 0.18 0.15 0.27 0.38 0.39 0.38 0.24 0.40 0.39 0.37 0.37 0.38 0.31 0.35 0.40 0.33 0.25 0.22 0.20 0.19 0.19 0.19 0.17 0.17 0.18 0.16 0.16 0.16 0.17 0.18 0.16 0.16 0.16 0.16 0.19 0.23 0.24 0.26 0.26 0.28 0.29 0.30 0.34
0.21 0.19 0.22 0.31 0.36 0.41 0.23 0.26 0.40 0.41 0.39 0.38 0.36 0.40 0.41 0.36 0.27 0.21 0.19 0.17 0.17 0.16 0.15 0.16 0.17 0.16 0.15 0.16 0.16 0.18 0.18 0.19 0.17 0.16 0.15 0.14 0.15 0.17 0.18 0.19 0.20 0.21 0.23 0.25
0.22 0.20 0.17 0.36 0.35 0.30 0.37 0.42 0.42 0.42 0.41 0.39 0.41 0.41 0.38 0.31 0.23 0.20 0.18 0.16 0.15 0.13 0.14 0.15 0.16 0.16 0.15 0.15 0.18 0.18 0.18 0.18 0.17 0.17 0.16 0.15 0.14 0.14 0.14 0.14 0.14 0.15 0.16 0.17
0.26 0.24 0.36 0.41 0.41 0.44 0.44 0.42 0.42 0.42 0.43 0.42 0.40 0.39 0.33 0.27 0.21 0.18 0.16 0.15 0.14 0.13 0.14 0.15 0.15 0.15 0.15 0.17 0.18 0.17 0.17 0.17 0.17 0.17 0.17 0.16 0.15 0.14 0.14 0.13 0.13 0.13 0.13 0.14
0.29 0.33 0.37 0.40 0.43 0.45 0.46 0.44 0.44 0.46 0.44 0.43 0.38 0.36 0.30 0.24 0.19 0.17 0.16 0.15 0.15 0.13 0.13 0.13 0.15 0.15 0.16 0.17 0.18 0.18 0.16 0.17 0.18 0.18 0.17 0.17 0.17 0.16 0.15 0.14 0.13 0.12 0.12 0.13
0.26 0.29 0.32 0.35 0.39 0.42 0.44 0.45 0.43 0.45 0.44 0.40 0.38 0.33 0.28 0.21 0.17 0.15 0.14 0.14 0.13 0.13 0.13 0.13 0.14 0.14 0.15 0.16 0.17 0.18 0.18 0.17 0.17 0.18 0.17 0.18 0.19 0.18 0.17 0.17 0.16 0.13 0.13 0.14
0.20 0.27 0.29 0.34 0.41 0.44 0.42 0.43 0.43 0.42 0.40 0.39 0.36 0.31 0.25 0.20 0.18 0.16 0.15 0.13 0.12 0.13 0.12 0.12 0.14 0.14 0.16 0.15 0.15 0.16 0.16 0.16 0.15 0.16 0.16 0.16 0.15 0.15 0.20 0.19 0.18 0.17 0.14 0.15
0.30 0.34 0.36 0.39 0.43 0.44 0.43 0.43 0.43 0.42 0.41 0.37 0.34 0.29 0.24 0.19 0.16 0.14 0.13 0.13 0.13 0.12 0.12 0.12 0.13 0.14 0.16 0.18 0.15 0.14 0.15 0.16 0.15 0.15 0.15 0.15 0.15 0.14 0.13 0.15 0.17 0.17 0.15 0.14
0.36 0.35 0.33 0.38 0.39 0.44 0.45 0.45 0.44 0.43 0.40 0.36 0.32 0.28 0.21 0.17 0.15 0.13 0.12 0.13 0.14 0.13 0.12 0.11 0.11 0.13 0.16 0.17 0.17 0.14 0.14 0.15 0.15 0.14 0.13 0.14 0.14 0.14 0.13 0.12 0.11 0.13 0.14 0.13
0.32 0.36 0.36 0.40 0.44 0.45 0.45 0.44 0.41 0.40 0.37 0.33 0.30 0.25 0.19 0.16 0.14 0.13 0.13 0.14 0.13 0.12 0.11 0.10 0.11 0.13 0.15 0.16 0.16 0.15 0.14 0.14 0.14 0.14 0.13 0.14 0.14 0.13 0.13 0.12 0.12 0.11 0.12 0.12
0.33 0.35 0.38 0.39 0.42 0.44 0.43 0.41 0.38 0.36 0.34 0.31 0.29 0.24 0.20 0.17 0.15 0.14 0.14 0.14 0.11 0.10 0.11 0.10 0.10 0.12 0.14 0.15 0.15 0.15 0.15 0.15 0.15 0.14 0.14 0.13 0.14 0.12 0.13 0.12 0.12 0.11 0.11 0.11
0.29 0.31 0.35 0.37 0.41 0.42 0.41 0.40 0.38 0.35 0.33 0.32 0.29 0.23 0.19 0.15 0.13 0.13 0.13 0.13 0.12 0.11 0.11 0.12 0.11 0.12 0.13 0.14 0.15 0.15 0.15 0.15 0.16 0.16 0.15 0.14 0.15 0.14 0.13 0.14 0.13 0.12 0.12 0.12
0.35 0.37 0.39 0.40 0.41 0.42 0.42 0.41 0.39 0.37 0.34 0.33 0.28 0.22 0.17 0.14 0.12 0.12 0.12 0.12 0.12 0.11 0.11 0.12 0.13 0.13 0.13 0.14 0.15 0.15 0.15 0.14 0.15 0.15 0.16 0.14 0.15 0.16 0.15 0.15 0.14 0.13 0.13 0.14
0.37 0.38 0.41 0.43 0.44 0.43 0.43 0.40 0.39 0.38 0.36 0.33 0.26 0.19 0.16 0.15 0.13 0.12 0.13 0.14 0.14 0.12 0.11 0.13 0.14 0.14 0.14 0.14 0.14 0.15 0.16 0.15 0.15 0.15 0.15 0.15 0.14 0.14 0.14 0.13 0.13 0.13 0.13 0.13
0.37 0.41 0.44 0.44 0.45 0.44 0.41 0.40 0.39 0.38 0.37 0.31 0.24 0.17 0.14 0.14 0.12 0.13 0.15 0.15 0.15 0.14 0.14 0.14 0.15 0.16 0.15 0.12 0.14 0.16 0.15 0.15 0.15 0.15 0.15 0.14 0.14 0.13 0.12 0.12 0.12 0.12 0.13 0.12
0.40 0.42 0.43 0.42 0.42 0.42 0.42 0.41 0.40 0.38 0.35 0.29 0.20 0.15 0.13 0.13 0.13 0.15 0.15 0.14 0.17 0.16 0.16 0.16 0.16 0.15 0.15 0.13 0.15 0.16 0.16 0.15 0.15 0.14 0.14 0.14 0.13 0.12 0.12 0.12 0.11 0.11 0.11 0.11
0.41 0.40 0.41 0.41 0.40 0.40 0.41 0.40 0.40 0.37 0.32 0.25 0.19 0.15 0.14 0.13 0.14 0.17 0.20 0.19 0.17 0.17 0.17 0.17 0.17 0.16 0.14 0.15 0.17 0.16 0.16 0.15 0.15 0.14 0.13 0.13 0.12 0.11 0.11 0.11 0.10 0.10 0.10 0.10
0.40 0.41 0.40 0.40 0.39 0.39 0.39 0.39 0.38 0.35 0.28 0.21 0.16 0.14 0.13 0.13 0.14 0.16 0.16 0.19 0.20 0.18 0.17 0.17 0.16 0.15 0.15 0.17 0.17 0.16 0.15 0.15 0.14 0.13 0.12 0.11 0.11 0.10 0.10 0.10 0.09 0.09 0.09 0.08
0.40 0.40 0.40 0.40 0.40 0.38 0.36 0.36 0.34 0.29 0.22 0.18 0.15 0.15 0.16 0.16 0.19 0.22 0.21 0.20 0.19 0.18 0.17 0.16 0.16 0.18 0.18 0.17 0.16 0.15 0.14 0.14 0.13 0.12 0.11 0.11 0.10 0.10 0.09 0.09 0.08 0.08 0.08 0.07
0.39 0.38 0.37 0.35 0.34 0.34 0.34 0.33 0.29 0.24 0.20 0.17 0.16 0.19 0.21 0.22 0.19 0.20 0.20 0.19 0.18 0.17 0.18 0.19 0.19 0.19 0.16 0.15 0.14 0.14 0.13 0.12 0.11 0.11 0.10 0.10 0.09 0.09 0.08 0.08 0.07 0.07 0.07 0.07
0.39 0.38 0.37 0.36 0.34 0.33 0.31 0.29 0.24 0.20 0.17 0.14 0.15 0.18 0.19 0.21 0.21 0.21 0.20 0.19 0.20 0.21 0.22 0.21 0.20 0.17 0.15 0.15 0.14 0.12 0.12 0.11 0.10 0.10 0.09 0.09 0.08 0.08 0.07 0.07 0.07 0.07 0.07 0.07
0.40 0.39 0.38 0.36 0.35 0.33 0.30 0.27 0.24 0.20 0.18 0.15 0.14 0.17 0.19 0.20 0.23 0.23 0.23 0.23 0.24 0.23 0.22 0.19 0.17 0.16 0.15 0.14 0.12 0.12 0.11 0.10 0.10 0.09 0.09 0.08 0.08 0.07 0.07 0.06 0.06 0.07 0.07 0.07

GFSNGP_prec_pwat_129.txt.gz
Precipitable_Water
0.21 0.23 0.23 0.21 0.20 0.23 0.21 0.19 0.15 0.14 0.14 0.16 0.23 0.29 0.33 0.37 0.36 0.35 0.38 0.40 0.39 0.36 0.35 0.31 0.29 0.28 0.28 0.30 0.34 0.41 0.51 0.55 0.55 0.57 0.59 0.61 0.63 0.65 0.66 0.66 0.65 0.65 0.66 0.67
0.19 0.23 0.23 0.19 0.20 0.20 0.16 0.14 0.14 0.15 0.12 0.20 0.27 0.33 0.34 0.37 0.38 0.38 0.39 0.38 0.35 0.29 0.26 0.25 0.21 0.19 0.20 0.21 0.23 0.25 0.22 0.26 0.35 0.47 0.55 0.57 0.58 0.59 0.61 0.62 0.63 0.64 0.64 0.66
0.17 0.22 0.20 0.16 0.17 0.16 0.20 0.21 0.21 0.18 0.19 0.25 0.27 0.31 0.37 0.40 0.40 0.39 0.38 0.33 0.27 0.24 0.21 0.21 0.19 0.18 0.16 0.17 0.18 0.17 0.17 0.18 0.18 0.19 0.20 0.23 0.30 0.36 0.40 0.45 0.51 0.55 0.57 0.60
0.18 0.19 0.12 0.17 0.24 0.24 0.24 0.26 0.29 0.27 0.30 0.34 0.37 0.41 0.43 0.44 0.41 0.39 0.33 0.29 0.25 0.22 0.19 0.19 0.19 0.18 0.18 0.17 0.16 0.15 0.14 0.15 0.16 0.16 0.16 0.17 0.18 0.18 0.20 0.21 0.23 0.27 0.34 0.44
0.18 0.17 0.19 0.17 0.19 0.20 0.25 0.24 0.32 0.31 0.34 0.38 0.41 0.41 0.39 0.44 0.43 0.37 0.31 0.27 0.24 0.22 0.20 0.18 0.18 0.19 0.17 0.16 0.15 0.15 0.14 0.14 0.14 0.15 0.15 0.14 0.14 0.15 0.17 0.17 0.18 0.19 0.20 0.21
0.23 0.18 0.13 0.19 0.32 0.37 0.33 0.19 0.33 0.35 0.35 0.36 0.38 0.30 0.34 0.42 0.40 0.33 0.29 0.24 0.20 0.19 0.18 0.19 0.19 0.18 0.16 0.16 0.15 0.14 0.14 0.14 0.15 0.14 0.13 0.13 0.14 0.14 0.15 0.15 0.16 0.17 0.17 0.19
0.21 0.18 0.18 0.21 0.27 0.34 0.18 0.19 0.35 0.37 0.37 0.37 0.35 0.38 0.41 0.43 0.38 0.31 0.24 0.20 0.20 0.19 0.17 0.17 0.17 0.17 0.15 0.15 0.15 0.17 0.17 0.16 0.15 0.14 0.14 0.14 0.13 0.14 0.14 0.14 0.14 0.14 0.14 0.16
0.23 0.21 0.17 0.29 0.27 0.22 0.28 0.37 0.38 0.39 0.38 0.38 0.40 0.42 0.42 0.40 0.35 0.26 0.21 0.19 0.17 0.15 0.16 0.17 0.18 0.16 0.15 0.15 0.17 0.17 0.17 0.16 0.16 0.15 0.15 0.14 0.13 0.13 0.13 0.13 0.13 0.13 0.12 0.13
0.27 0.25 0.33 0.33 0.31 0.36 0.40 0.39 0.39 0.39 0.40 0.40 0.40 0.41 0.40 0.38 0.29 0.20 0.17 0.15 0.15 0.14 0.15 0.17 0.18 0.18 0.14 0.16 0.17 0.16 0.15 0.15 0.16 0.16 0.15 0.15 0.14 0.13 0.13 0.14 0.13 0.13 0.12 0.12
0.30 0.34 0.35 0.34 0.36 0.39 0.40 0.39 0.41 0.42 0.41 0.41 0.40 0.40 0.37 0.32 0.25 0.20 0.18 0.15 0.15 0.14 0.14 0.15 0.17 0.17 0.17 0.17 0.16 0.15 0.14 0.14 0.15 0.15 0.16 0.16 0.16 0.15 0.13 0.14 0.14 0.13 0.13 0.12
0.36 0.36 0.37 0.37 0.38 0.37 0.36 0.38 0.40 0.41 0.41 0.41 0.41 0.39 0.37 0.32 0.24 0.19 0.17 0.15 0.15 0.14 0.14 0.14 0.15 0.16 0.17 0.16 0.15 0.13 0.14 0.14 0.14 0.14 0.14 0.14 0.16 0.15 0.14 0.15 0.15 0.14 0.13 0.13
0.27 0.34 0.34 0.32 0.32 0.33 0.32 0.34 0.38 0.39 0.39 0.41 0.42 0.40 0.37 0.31 0.24 0.20 0.17 0.16 0.14 0.14 0.15 0.15 0.14 0.14 0.15 0.15 0.14 0.13 0.13 0.13 0.13 0.13 0.12 0.12 0.12 0.12 0.15 0.15 0.15 0.15 0.15 0.14
0.33 0.39 0.37 0.35 0.35 0.35 0.33 0.35 0.37 0.39 0.41 0.41 0.42 0.42 0.37 0.31 0.24 0.19 0.18 0.15 0.14 0.13 0.15 0.15 0.15 0.13 0.14 0.15 0.14 0.13 0.12 0.13 0.13 0.13 0.13 0.12 0.12 0.12 0.11 0.13 0.14 0.14 0.14 0.14
0.37 0.34 0.29 0.32 0.29 0.33 0.34 0.36 0.37 0.39 0.42 0.43 0.44 0.41 0.37 0.31 0.24 0.19 0.16 0.16 0.14 0.14 0.15 0.16 0.15 0.14 0.14 0.15 0.14 0.13 0.13 0.13 0.13 0.13 0.13 0.12 0.12 0.13 0.13 0.13 0.12 0.12 0.13 0.13
0.29 0.30 0.30 0.31 0.31 0.31 0.35 0.36 0.35 0.36 0.40 0.42 0.42 0.38 0.35 0.29 0.22 0.20 0.18 0.17 0.15 0.13 0.14 0.15 0.15 0.15 0.16 0.15 0.14 0.14 0.14 0.13 0.14 0.13 0.13 0.13 0.13 0.14 0.14 0.14 0.13 0.13 0.13 0.13
0.26 0.27 0.29 0.28 0.29 0.32 0.34 0.36 0.35 0.36 0.40 0.41 0.39 0.37 0.32 0.27 0.23 0.20 0.19 0.17 0.13 0.12 0.14 0.15 0.15 0.14 0.15 0.15 0.15 0.15 0.14 0.14 0.14 0.13 0.13 0.13 0.14 0.14 0.15 0.14 0.14 0.13 0.13 0.12
0.19 0.20 0.23 0.26 0.29 0.32 0.35 0.38 0.39 0.39 0.40 0.40 0.38 0.35 0.31 0.27 0.23 0.20 0.18 0.16 0.14 0.14 0.15 0.15 0.14 0.15 0.15 0.16 0.15 0.14 0.14 0.14 0.14 0.13 0.13 0.13 0.14 0.14 0.14 0.14 0.13 0.13 0.13 0.13
0.25 0.25 0.27 0.30 0.31 0.33 0.36 0.40 0.40 0.40 0.40 0.40 0.38 0.35 0.30 0.25 0.20 0.18 0.17 0.15 0.14 0.15 0.15 0.15 0.15 0.15 0.15 0.16 0.16 0.15 0.14 0.14 0.14 0.13 0.13 0.14 0.15 0.15 0.15 0.14 0.13 0.12 0.12 0.12
0.27 0.27 0.31 0.34 0.36 0.37 0.39 0.40 0.40 0.40 0.40 0.39 0.38 0.33 0.30 0.26 0.21 0.18 0.17 0.15 0.14 0.14 0.14 0.15 0.15 0.15 0.14 0.15 0.16 0.15 0.14 0.14 0.14 0.13 0.14 0.15 0.15 0.15 0.14 0.13 0.12 0.11 0.11 0.11
0.30 0.34 0.37 0.39 0.40 0.39 0.39 0.41 0.40 0.39 0.39 0.39 0.37 0.33 0.29 0.25 0.22 0.18 0.16 0.14 0.14 0.15 0.16 0.16 0.16 0.16 0.14 0.16 0.16 0.15 0.15 0.14 0.14 0.14 0.16 0.15 0.15 0.14 0.13 0.12 0.11 0.11 0.10 0.10
0.36 0.39 0.40 0.40 0.39 0.40 0.41 0.41 0.39 0.37 0.38 0.38 0.36 0.33 0.29 0.25 0.20 0.17 0.14 0.14 0.15 0.16 0.17 0.17 0.17 0.16 0.17 0.17 0.16 0.16 0.15 0.14 0.15 0.16 0.15 0.15 0.13 0.12 0.11 0.11 0.10 0.09 0.09 0.09
0.38 0.39 0.39 0.39 0.39 0.39 0.40 0.40 0.39 0.38 0.37 0.37 0.37 0.34 0.28 0.22 0.18 0.16 0.17 0.17 0.18 0.17 0.18 0.18 0.18 0.18 0.19 0.18 0.16 0.15 0.15 0.17 0.17 0.16 0.15 0.13 0.12 0.11 0.10 0.10 0.09 0.09 0.08 0.08
0.38 0.39 0.39 0.39 0.38 0.39 0.39 0.39 0.39 0.38 0.37 0.36 0.35 0.31 0.27 0.21 0.17 0.16 0.16 0.18 0.18 0.19 0.20 0.19 0.20 0.20 0.18 0.17 0.16 0.16 0.19 0.17 0.15 0.14 0.13 0.12 0.11 0.10 0.09 0.09 0.09 0.08 0.08 0.08
0.38 0.38 0.39 0.39 0.39 0.38 0.36 0.37 0.38 0.38 0.37 0.36 0.35 0.30 0.24 0.20 0.18 0.20 0.19 0.21 0.20 0.20 0.21 0.20 0.19 0.18 0.17 0.16 0.19 0.19 0.16 0.15 0.14 0.13 0.11 0.11 0.10 0.09 0.09 0.08 0.08 0.08 0.07 0.07
0.38 0.38 0.38 0.37 0.36 0.36 0.37 0.37 0.36 0.36 0.35 0.35 0.31 0.28 0.25 0.20 0.16 0.19 0.21 0.21 0.21 0.21 0.20 0.20 0.18 0.17 0.20 0.21 0.19 0.16 0.14 0.14 0.12 0.11 0.11 0.10 0.09 0.09 0.08 0.08 0.08 0.07 0.07 0.07
0.37 0.37 0.37 0.38 0.37 0.37 0.37 0.36 0.34 0.35 0.34 0.32 0.30 0.25 0.20 0.17 0.17 0.19 0.22 0.22 0.21 0.21 0.19 0.18 0.21 0.23 0.21 0.19 0.16 0.14 0.13 0.12 0.11 0.10 0.10 0.09 0.09 0.08 0.08 0.08 0.07 0.07 0.07 0.07
0.37 0.38 0.37 0.37 0.37 0.37 0.37 0.36 0.34 0.33 0.34 0.30 0.22 0.22 0.21 0.19 0.20 0.20 0.20 0.20 0.20 0.21 0.23 0.24 0.23 0.21 0.18 0.16 0.15 0.13 0.12 0.11 0.11 0.10 0.09 0.09 0.08 0.08 0.08 0.07 0.07 0.07 0.06 0.06

GFSNGP_prec_pwat_132.txt.gz
Precipitable_Water
0.26 0.27 0.28 0.24 0.21 0.22 0.21 0.18 0.18 0.16 0.17 0.17 0.19 0.21 0.21 0.26 0.30 0.36 0.37 0.38 0.38 0.35 0.34 0.30 0.27 0.25 0.22 0.22 0.22 0.22 0.22 0.23 0.28 0.38 0.44 0.48 0.50 0.55 0.59 0.59 0.60 0.63 0.64 0.66
0.23 0.28 0.27 0.22 0.22 0.22 0.19 0.20 0.17 0.17 0.14 0.17 0.22 0.28 0.26 0.29 0.31 0.35 0.39 0.39 0.36 0.32 0.27 0.22 0.19 0.18 0.18 0.18 0.20 0.18 0.17 0.17 0.19 0.20 0.21 0.22 0.25 0.30 0.37 0.43 0.48 0.52 0.56 0.58
0.22 0.27 0.25 0.16 0.17 0.18 0.17 0.17 0.20 0.18 0.22 0.28 0.28 0.31 0.31 0.33 0.36 0.39 0.40 0.36 0.32 0.27 0.23 0.22 0.19 0.17 0.16 0.15 0.17 0.16 0.16 0.16 0.16 0.16 0.16 0.18 0.19 0.20 0.20 0.21 0.24 0.27 0.34 0.41
0.21 0.22 0.13 0.17 0.21 0.22 0.21 0.21 0.24 0.25 0.28 0.30 0.33 0.37 0.40 0.43 0.42 0.42 0.39 0.32 0.27 0.24 0.21 0.20 0.19 0.17 0.16 0.16 0.15 0.15 0.14 0.14 0.15 0.15 0.14 0.15 0.15 0.15 0.16 0.17 0.18 0.18 0.19 0.20
0.19 0.18 0.19 0.19 0.22 0.22 0.20 0.16 0.27 0.27 0.31 0.34 0.36 0.38 0.39 0.44 0.44 0.42 0.34 0.29 0.26 0.24 0.21 0.20 0.18 0.18 0.18 0.16 0.15 0.14 0.13 0.13 0.14 0.14 0.14 0.14 0.13 0.14 0.14 0.14 0.14 0.15 0.16 0.16
0.23 0.17 0.12 0.19 0.29 0.32 0.33 0.18 0.30 0.31 0.32 0.33 0.35 0.29 0.34 0.42 0.43 0.39 0.33 0.28 0.24 0.23 0.20 0.18 0.19 0.19 0.16 0.15 0.14 0.13 0.14 0.14 0.14 0.14 0.13 0.13 0.14 0.14 0.14 0.14 0.13 0.13 0.13 0.14
0.22 0.19 0.20 0.27 0.30 0.32 0.14 0.14 0.29 0.34 0.35 0.34 0.32 0.36 0.40 0.43 0.41 0.36 0.31 0.26 0.23 0.20 0.17 0.20 0.19 0.18 0.15 0.14 0.14 0.15 0.15 0.14 0.14 0.14 0.14 0.14 0.14 0.14 0.14 0.14 0.12 0.12 0.12 0.13
0.23 0.20 0.18 0.31 0.32 0.22 0.23 0.32 0.36 0.37 0.37 0.35 0.37 0.39 0.40 0.41 0.39 0.35 0.26 0.22 0.20 0.19 0.19 0.18 0.18 0.17 0.14 0.14 0.16 0.16 0.15 0.14 0.14 0.14 0.14 0.14 0.13 0.14 0.13 0.13 0.12 0.12 0.11 0.11
0.25 0.26 0.34 0.36 0.32 0.37 0.36 0.34 0.36 0.38 0.39 0.38 0.36 0.38 0.40 0.40 0.38 0.30 0.23 0.21 0.21 0.18 0.17 0.17 0.18 0.17 0.14 0.16 0.16 0.15 0.14 0.14 0.15 0.15 0.14 0.14 0.13 0.14 0.14 0.13 0.12 0.12 0.11 0.11
0.31 0.33 0.35 0.36 0.40 0.41 0.39 0.37 0.39 0.39 0.38 0.39 0.36 0.38 0.39 0.39 0.36 0.28 0.22 0.19 0.18 0.16 0.16 0.16 0.18 0.17 0.16 0.16 0.16 0.14 0.13 0.13 0.14 0.14 0.14 0.14 0.13 0.14 0.14 0.14 0.13 0.12 0.12 0.11
0.32 0.35 0.39 0.41 0.41 0.40 0.40 0.41 0.38 0.37 0.37 0.38 0.37 0.37 0.38 0.38 0.34 0.25 0.22 0.20 0.17 0.16 0.15 0.16 0.17 0.17 0.17 0.16 0.15 0.13 0.13 0.12 0.12 0.12 0.12 0.12 0.13 0.14 0.14 0.16 0.16 0.14 0.13 0.13
0.29 0.37 0.37 0.36 0.39 0.42 0.38 0.35 0.35 0.34 0.35 0.37 0.38 0.36 0.37 0.36 0.32 0.25 0.19 0.19 0.17 0.16 0.16 0.16 0.16 0.17 0.16 0.16 0.14 0.13 0.12 0.12 0.12 0.12 0.12 0.12 0.11 0.12 0.15 0.16 0.16 0.16 0.16 0.15
0.37 0.39 0.37 0.39 0.41 0.41 0.37 0.35 0.35 0.35 0.37 0.36 0.37 0.37 0.37 0.36 0.33 0.26 0.21 0.19 0.17 0.16 0.15 0.15 0.15 0.15 0.15 0.14 0.14 0.13 0.12 0.12 0.12 0.12 0.12 0.12 0.12 0.12 0.12 0.14 0.15 0.16 0.15 0.16
0.37 0.36 0.33 0.36 0.32 0.35 0.33 0.32 0.34 0.34 0.36 0.37 0.37 0.38 0.37 0.36 0.34 0.26 0.20 0.18 0.17 0.17 0.17 0.16 0.15 0.14 0.15 0.15 0.14 0.13 0.13 0.13 0.12 0.12 0.13 0.13 0.13 0.13 0.13 0.13 0.13 0.13 0.15 0.15
0.31 0.32 0.30 0.31 0.31 0.30 0.30 0.30 0.29 0.31 0.34 0.36 0.37 0.38 0.37 0.37 0.34 0.26 0.22 0.20 0.18 0.17 0.18 0.17 0.15 0.14 0.16 0.16 0.14 0.14 0.14 0.13 0.14 0.14 0.14 0.14 0.14 0.13 0.14 0.14 0.13 0.14 0.14 0.14
0.26 0.26 0.26 0.25 0.26 0.27 0.28 0.30 0.30 0.32 0.34 0.36 0.38 0.39 0.39 0.39 0.32 0.25 0.22 0.20 0.17 0.16 0.17 0.18 0.16 0.16 0.16 0.16 0.15 0.15 0.14 0.15 0.14 0.14 0.13 0.13 0.13 0.13 0.13 0.14 0.14 0.14 0.13 0.13
0.21 0.18 0.20 0.20 0.22 0.25 0.28 0.31 0.33 0.35 0.37 0.37 0.38 0.39 0.39 0.37 0.28 0.24 0.22 0.21 0.18 0.16 0.18 0.18 0.17 0.17 0.16 0.16 0.15 0.15 0.15 0.14 0.14 0.14 0.13 0.13 0.13 0.13 0.14 0.14 0.14 0.14 0.13 0.13
0.27 0.25 0.24 0.24 0.24 0.27 0.30 0.34 0.35 0.37 0.36 0.38 0.38 0.38 0.37 0.31 0.27 0.25 0.23 0.20 0.17 0.17 0.18 0.18 0.18 0.17 0.17 0.17 0.16 0.16 0.15 0.15 0.14 0.13 0.13 0.13 0.13 0.15 0.15 0.14 0.14 0.13 0.12 0.12
0.29 0.28 0.28 0.28 0.30 0.32 0.35 0.36 0.37 0.38 0.38 0.38 0.36 0.36 0.35 0.31 0.28 0.25 0.21 0.17 0.16 0.16 0.17 0.19 0.18 0.18 0.18 0.18 0.17 0.16 0.15 0.15 0.14 0.14 0.13 0.14 0.15 0.15 0.15 0.14 0.13 0.12 0.11 0.10
0.28 0.28 0.30 0.33 0.37 0.38 0.38 0.37 0.38 0.38 0.38 0.37 0.37 0.35 0.34 0.30 0.28 0.23 0.20 0.16 0.16 0.16 0.18 0.19 0.19 0.17 0.17 0.18 0.17 0.16 0.15 0.15 0.14 0.14 0.14 0.15 0.15 0.15 0.14 0.13 0.12 0.11 0.10 0.09
0.31 0.33 0.35 0.37 0.38 0.39 0.39 0.38 0.38 0.37 0.37 0.37 0.36 0.35 0.33 0.30 0.28 0.23 0.19 0.17 0.17 0.17 0.18 0.18 0.18 0.18 0.18 0.18 0.18 0.16 0.15 0.15 0.15 0.15 0.16 0.15 0.15 0.14 0.13 0.12 0.11 0.10 0.09 0.08
0.34 0.35 0.36 0.37 0.37 0.37 0.38 0.39 0.39 0.38 0.37 0.36 0.36 0.35 0.33 0.30 0.28 0.25 0.22 0.17 0.17 0.18 0.19 0.19 0.19 0.19 0.19 0.19 0.17 0.17 0.16 0.15 0.16 0.17 0.16 0.15 0.14 0.12 0.11 0.10 0.10 0.09 0.08 0.08
0.36 0.36 0.37 0.37 0.37 0.37 0.38 0.38 0.38 0.38 0.36 0.35 0.35 0.35 0.33 0.30 0.27 0.21 0.17 0.20 0.19 0.18 0.19 0.19 0.19 0.20 0.19 0.18 0.18 0.16 0.15 0.17 0.17 0.16 0.15 0.14 0.12 0.11 0.10 0.09 0.09 0.08 0.08 0.08
0.35 0.36 0.36 0.37 0.38 0.37 0.35 0.37 0.37 0.37 0.37 0.36 0.36 0.35 0.34 0.28 0.24 0.22 0.21 0.22 0.21 0.19 0.20 0.21 0.21 0.20 0.19 0.17 0.16 0.16 0.18 0.17 0.15 0.15 0.13 0.12 0.11 0.10 0.09 0.09 0.08 0.08 0.08 0.08
0.35 0.35 0.36 0.36 0.35 0.35 0.36 0.36 0.36 0.36 0.35 0.35 0.35 0.34 0.31 0.26 0.22 0.22 0.22 0.20 0.21 0.21 0.21 0.21 0.20 0.19 0.17 0.16 0.19 0.19 0.17 0.15 0.14 0.13 0.12 0.11 0.10 0.09 0.09 0.08 0.08 0.08 0.08 0.07
0.35 0.35 0.36 0.36 0.36 0.36 0.36 0.36 0.34 0.35 0.34 0.33 0.33 0.32 0.29 0.27 0.23 0.22 0.22 0.22 0.21 0.22 0.21 0.21 0.19 0.17 0.18 0.22 0.20 0.17 0.15 0.14 0.13 0.12 0.11 0.10 0.09 0.09 0.08 0.08 0.08 0.08 0.07 0.07
0.36 0.36 0.35 0.35 0.36 0.36 0.36 0.35 0.34 0.33 0.34 0.33 0.31 0.31 0.28 0.21 0.19 0.20 0.21 0.21 0.22 0.22 0.20 0.18 0.19 0.23 0.22 0.20 0.17 0.15 0.14 0.13 0.12 0.11 0.10 0.09 0.09 0.08 0.08 0.08 0.08 0.07 0.07 0.07